Observation data for Welch on 10/14/2019      Previous  Date  Next       Current Mesonet Observations  Soil Data  Daily Summary Page  Observations in Plain Language
KWE2 140500Z 21004KT 17/05 A30 RMK A01 T01650054  RH  048%=      5-min Rain = 0
KWE2 140501Z 20004KT 17/05 A30 RMK A01 T01650054  RH  048%=      5-min Rain = 0
KWE2 140502Z 20004KT 17/05 A30 RMK A01 T01650054  RH  048%=      5-min Rain = 0
KWE2 140503Z 20004KT 16/05 A30 RMK A01 T01640054  RH  048%=      5-min Rain = 0
KWE2 140504Z 21004KT 16/05 A30 RMK A01 T01640054  RH  048%=      5-min Rain = 0
KWE2 140505Z 21004KT 16/05 A30 RMK A01 T01630054  RH  048%=      5-min Rain = 0
KWE2 140506Z 21004KT 16/05 A30 RMK A01 T01630054  RH  048%=      5-min Rain = 0
KWE2 140507Z 21004KT 16/06 A30 RMK A01 T01630055  RH  049%=      5-min Rain = 0
KWE2 140508Z 22004KT 16/06 A30 RMK A01 T01620055  RH  049%=      5-min Rain = 0
KWE2 140509Z 22004KT 16/06 A30 RMK A01 T01620056  RH  049%=      5-min Rain = 0
KWE2 140510Z 22004KT 16/06 A30 RMK A01 T01620057  RH  050%=      5-min Rain = 0
KWE2 140511Z 22004KT 16/06 A30 RMK A01 T01620057  RH  050%=      5-min Rain = 0
KWE2 140512Z 22004KT 16/06 A30 RMK A01 T01620057  RH  050%=      5-min Rain = 0
KWE2 140513Z 22004KT 16/06 A30 RMK A01 T01620057  RH  050%=      5-min Rain = 0
KWE2 140514Z 22003KT 16/06 A30 RMK A01 T01610057  RH  050%=      5-min Rain = 0
KWE2 140515Z 23003KT 16/06 A30 RMK A01 T01610057  RH  050%=      5-min Rain = 0
KWE2 140516Z 23003KT 16/06 A30 RMK A01 T01610057  RH  050%=      5-min Rain = 0
KWE2 140517Z 23004KT 16/06 A30 RMK A01 T01600057  RH  050%=      5-min Rain = 0
KWE2 140518Z 22004KT 16/06 A30 RMK A01 T01600058  RH  051%=      5-min Rain = 0
KWE2 140519Z 22004KT 16/06 A30 RMK A01 T01600059  RH  051%=      5-min Rain = 0
KWE2 140520Z 22004KT 16/06 A30 RMK A01 T01600059  RH  051%=      5-min Rain = 0
KWE2 140521Z 22004KT 16/06 A30 RMK A01 T01590060  RH  052%=      5-min Rain = 0
KWE2 140522Z 22004KT 16/06 A30 RMK A01 T01590061  RH  052%=      5-min Rain = 0
KWE2 140523Z 22004KT 16/06 A30 RMK A01 T01590061  RH  052%=      5-min Rain = 0
KWE2 140524Z 22005KT 16/06 A30 RMK A01 T01590062  RH  052%=      5-min Rain = 0
KWE2 140525Z 22005KT 16/06 A30 RMK A01 T01590062  RH  052%=      5-min Rain = 0
KWE2 140526Z 22004KT 16/06 A30 RMK A01 T01590061  RH  052%=      5-min Rain = 0
KWE2 140527Z 21004KT 16/06 A30 RMK A01 T01590061  RH  052%=      5-min Rain = 0
KWE2 140528Z 21004KT 16/06 A30 RMK A01 T01590061  RH  052%=      5-min Rain = 0
KWE2 140529Z 21004KT 16/06 A30 RMK A01 T01590061  RH  052%=      5-min Rain = 0
KWE2 140530Z 20004KT 16/06 A30 RMK A01 T01590061  RH  052%=      5-min Rain = 0
KWE2 140531Z 20004KT 16/06 A30 RMK A01 T01570061  RH  053%=      5-min Rain = 0
KWE2 140532Z 20004KT 16/06 A30 RMK A01 T01560061  RH  053%=      5-min Rain = 0
KWE2 140533Z 19004KT 15/06 A30 RMK A01 T01540060  RH  053%=      5-min Rain = 0
KWE2 140534Z 18004KT 15/06 A30 RMK A01 T01530060  RH  054%=      5-min Rain = 0
KWE2 140535Z 19004KT 15/06 A30 RMK A01 T01520060  RH  054%=      5-min Rain = 0
KWE2 140536Z 19004KT 15/06 A30 RMK A01 T01510059  RH  054%=      5-min Rain = 0
KWE2 140537Z 19004KT 15/06 A30 RMK A01 T01510059  RH  054%=      5-min Rain = 0
KWE2 140538Z 19004KT 15/06 A30 RMK A01 T01510060  RH  055%=      5-min Rain = 0
KWE2 140539Z 20005KT 15/06 A30 RMK A01 T01510062  RH  055%=      5-min Rain = 0
KWE2 140540Z 20005KT 15/06 A30 RMK A01 T01520063  RH  055%=      5-min Rain = 0
KWE2 140541Z 21005KT 15/06 A30 RMK A01 T01540063  RH  055%=      5-min Rain = 0
KWE2 140542Z 21005KT 16/06 A30 RMK A01 T01560064  RH  054%=      5-min Rain = 0
KWE2 140543Z 21005KT 16/06 A30 RMK A01 T01560064  RH  054%=      5-min Rain = 0
KWE2 140544Z 21005KT 16/06 A30 RMK A01 T01570064  RH  054%=      5-min Rain = 0
KWE2 140545Z 21006KT 16/06 A30 RMK A01 T01570063  RH  054%=      5-min Rain = 0
KWE2 140546Z 21006KT 16/06 A30 RMK A01 T01570064  RH  054%=      5-min Rain = 0
KWE2 140547Z 21005KT 16/06 A30 RMK A01 T01560064  RH  054%=      5-min Rain = 0
KWE2 140548Z 21005KT 16/06 A2999 RMK A01 T01560064  RH  054%=      5-min Rain = 0
KWE2 140549Z 21005KT 16/07 A30 RMK A01 T01550065  RH  055%=      5-min Rain = 0
KWE2 140550Z 21005KT 16/07 A2999 RMK A01 T01550065  RH  055%=      5-min Rain = 0
KWE2 140551Z 21005KT 16/07 A2999 RMK A01 T01550065  RH  055%=      5-min Rain = 0
KWE2 140552Z 21004KT 16/07 A2999 RMK A01 T01550066  RH  055%=      5-min Rain = 0
KWE2 140553Z 21004KT 15/07 A2999 RMK A01 T01540066  RH  055%=      5-min Rain = 0
KWE2 140554Z 21004KT 15/07 A2999 RMK A01 T01540066  RH  055%=      5-min Rain = 0
KWE2 140555Z 21004KT 15/07 A2999 RMK A01 T01540066  RH  056%=      5-min Rain = 0
KWE2 140556Z 21004KT 15/07 A2999 RMK A01 T01540066  RH  056%=      5-min Rain = 0
KWE2 140557Z 21004KT 16/07 A30 RMK A01 T01550066  RH  055%=      5-min Rain = 0
KWE2 140558Z 20003KT 15/07 A30 RMK A01 T01540066  RH  056%=      5-min Rain = 0
KWE2 140559Z 20003KT 15/06 A30 RMK A01 T01530064  RH  055%=      5-min Rain = 0
KWE2 140600Z 20003KT 15/06 A2999 RMK A01 T01520063  RH  055%=      5-min Rain = 0
KWE2 140601Z 19002KT 15/06 A2999 RMK A01 T01510062  RH  056%=      5-min Rain = 0
KWE2 140602Z 19002KT 15/06 A2999 RMK A01 T01490062  RH  056%=      5-min Rain = 0
KWE2 140603Z 18002KT 15/06 A2999 RMK A01 T01480063  RH  057%=      5-min Rain = 0
KWE2 140604Z 17002KT 15/06 A2999 RMK A01 T01460064  RH  058%=      5-min Rain = 0
KWE2 140605Z 17002KT 15/06 A2999 RMK A01 T01450064  RH  058%=      5-min Rain = 0
KWE2 140606Z 16002KT 14/06 A2999 RMK A01 T01430063  RH  059%=      5-min Rain = 0
KWE2 140607Z 15002KT 14/06 A2999 RMK A01 T01420062  RH  059%=      5-min Rain = 0
KWE2 140608Z 14003KT 14/06 A2999 RMK A01 T01400062  RH  059%=      5-min Rain = 0
KWE2 140609Z 14003KT 14/06 A2999 RMK A01 T01400062  RH  059%=      5-min Rain = 0
KWE2 140610Z 14004KT 14/06 A2999 RMK A01 T01390062  RH  060%=      5-min Rain = 0
KWE2 140611Z 14004KT 14/06 A2999 RMK A01 T01380062  RH  060%=      5-min Rain = 0
KWE2 140612Z 15003KT 14/06 A2999 RMK A01 T01380062  RH  060%=      5-min Rain = 0
KWE2 140613Z 16004KT 14/06 A2999 RMK A01 T01370061  RH  060%=      5-min Rain = 0
KWE2 140614Z 17004KT 14/06 A2999 RMK A01 T01370062  RH  060%=      5-min Rain = 0
KWE2 140615Z 18003KT 14/06 A2999 RMK A01 T01370061  RH  060%=      5-min Rain = 0
KWE2 140616Z 18004KT 14/06 A2999 RMK A01 T01370062  RH  060%=      5-min Rain = 0
KWE2 140617Z 19004KT 14/06 A2999 RMK A01 T01370062  RH  060%=      5-min Rain = 0
KWE2 140618Z 19004KT 14/06 A2999 RMK A01 T01370062  RH  060%=      5-min Rain = 0
KWE2 140619Z 19004KT 14/06 A2999 RMK A01 T01370062  RH  061%=      5-min Rain = 0
KWE2 140620Z 19004KT 14/06 A2999 RMK A01 T01380063  RH  061%=      5-min Rain = 0
KWE2 140621Z 19004KT 14/06 A2999 RMK A01 T01390063  RH  060%=      5-min Rain = 0
KWE2 140622Z 19005KT 14/06 A2999 RMK A01 T01390063  RH  060%=      5-min Rain = 0
KWE2 140623Z 20005KT 14/07 A2999 RMK A01 T01410065  RH  060%=      5-min Rain = 0
KWE2 140624Z 20005KT 14/07 A2999 RMK A01 T01440066  RH  059%=      5-min Rain = 0
KWE2 140625Z 20005KT 15/07 A2999 RMK A01 T01470067  RH  059%=      5-min Rain = 0
KWE2 140626Z 20005KT 15/07 A2999 RMK A01 T01500068  RH  058%=      5-min Rain = 0
KWE2 140627Z 20005KT 15/07 A2999 RMK A01 T01520067  RH  057%=      5-min Rain = 0
KWE2 140628Z 20005KT 15/07 A2999 RMK A01 T01540067  RH  056%=      5-min Rain = 0
KWE2 140629Z 20005KT 16/07 A2999 RMK A01 T01550067  RH  056%=      5-min Rain = 0
KWE2 140630Z 20005KT 16/07 A2999 RMK A01 T01550067  RH  056%=      5-min Rain = 0
KWE2 140631Z 20005KT 16/07 A2999 RMK A01 T01560067  RH  056%=      5-min Rain = 0
KWE2 140632Z 20005KT 16/07 A2999 RMK A01 T01560067  RH  055%=      5-min Rain = 0
KWE2 140633Z 20005KT 16/07 A2999 RMK A01 T01570067  RH  055%=      5-min Rain = 0
KWE2 140634Z 20005KT 16/07 A2999 RMK A01 T01560067  RH  055%=      5-min Rain = 0
KWE2 140635Z 20005KT 16/07 A2999 RMK A01 T01570068  RH  055%=      5-min Rain = 0
KWE2 140636Z 20005KT 16/07 A2999 RMK A01 T01570068  RH  055%=      5-min Rain = 0
KWE2 140637Z 20005KT 16/07 A2999 RMK A01 T01570068  RH  055%=      5-min Rain = 0
KWE2 140638Z 20005KT 16/07 A2999 RMK A01 T01570068  RH  056%=      5-min Rain = 0
KWE2 140639Z 20005KT 16/07 A2999 RMK A01 T01560068  RH  056%=      5-min Rain = 0
KWE2 140640Z 21006KT 16/07 A2999 RMK A01 T01560069  RH  056%=      5-min Rain = 0
KWE2 140641Z 21006KT 16/07 A2999 RMK A01 T01560069  RH  056%=      5-min Rain = 0
KWE2 140642Z 20006KT 16/07 A2999 RMK A01 T01560069  RH  056%=      5-min Rain = 0
KWE2 140643Z 20006KT 16/07 A2999 RMK A01 T01560069  RH  056%=      5-min Rain = 0
KWE2 140644Z 21006KT 16/07 A2999 RMK A01 T01570070  RH  056%=      5-min Rain = 0
KWE2 140645Z 20006KT 16/07 A2999 RMK A01 T01570070  RH  056%=      5-min Rain = 0
KWE2 140646Z 20006KT 16/07 A2999 RMK A01 T01570070  RH  056%=      5-min Rain = 0
KWE2 140647Z 21006KT 16/07 A2999 RMK A01 T01580071  RH  056%=      5-min Rain = 0
KWE2 140648Z 21006KT 16/07 A2999 RMK A01 T01580071  RH  056%=      5-min Rain = 0
KWE2 140649Z 21006KT 16/07 A2999 RMK A01 T01580071  RH  056%=      5-min Rain = 0
KWE2 140650Z 21006KT 16/07 A2999 RMK A01 T01580071  RH  056%=      5-min Rain = 0
KWE2 140651Z 21006KT 16/07 A2999 RMK A01 T01580071  RH  056%=      5-min Rain = 0
KWE2 140652Z 21006KT 16/07 A2999 RMK A01 T01580071  RH  056%=      5-min Rain = 0
KWE2 140653Z 21006KT 16/07 A2999 RMK A01 T01590071  RH  056%=      5-min Rain = 0
KWE2 140654Z 20006KT 16/07 A2999 RMK A01 T01590072  RH  056%=      5-min Rain = 0
KWE2 140655Z 20007KT 16/07 A2999 RMK A01 T01590072  RH  056%=      5-min Rain = 0
KWE2 140656Z 20006KT 16/07 A2999 RMK A01 T01600072  RH  056%=      5-min Rain = 0
KWE2 140657Z 21006KT 16/07 A2999 RMK A01 T01600073  RH  056%=      5-min Rain = 0
KWE2 140658Z 21006KT 16/07 A2999 RMK A01 T01610073  RH  056%=      5-min Rain = 0
KWE2 140659Z 21006KT 16/07 A2999 RMK A01 T01610073  RH  056%=      5-min Rain = 0
KWE2 140700Z 21006KT 16/07 A2999 RMK A01 T01620074  RH  056%=      5-min Rain = 0
KWE2 140701Z 21006KT 16/07 A2999 RMK A01 T01620074  RH  056%=      5-min Rain = 0
KWE2 140702Z 21006KT 16/07 A2999 RMK A01 T01620074  RH  056%=      5-min Rain = 0
KWE2 140703Z 21006KT 16/07 A2999 RMK A01 T01620073  RH  056%=      5-min Rain = 0
KWE2 140704Z 21006KT 16/07 A2999 RMK A01 T01620074  RH  056%=      5-min Rain = 0
KWE2 140705Z 21006KT 16/07 A2999 RMK A01 T01630074  RH  056%=      5-min Rain = 0
KWE2 140706Z 21005KT 16/07 A2999 RMK A01 T01640074  RH  055%=      5-min Rain = 0
KWE2 140707Z 21005KT 16/07 A2999 RMK A01 T01640074  RH  055%=      5-min Rain = 0
KWE2 140708Z 21006KT 16/07 A2999 RMK A01 T01640074  RH  055%=      5-min Rain = 0
KWE2 140709Z 21005KT 16/07 A2999 RMK A01 T01640074  RH  055%=      5-min Rain = 0
KWE2 140710Z 22005KT 17/07 A2999 RMK A01 T01650074  RH  055%=      5-min Rain = 0
KWE2 140711Z 21005KT 17/08 A2999 RMK A01 T01650075  RH  055%=      5-min Rain = 0
KWE2 140712Z 22005KT 17/08 A2999 RMK A01 T01650075  RH  055%=      5-min Rain = 0
KWE2 140713Z 22005KT 17/08 A2999 RMK A01 T01660075  RH  055%=      5-min Rain = 0
KWE2 140714Z 22005KT 17/08 A2999 RMK A01 T01660075  RH  055%=      5-min Rain = 0
KWE2 140715Z 22005KT 17/08 A2999 RMK A01 T01660076  RH  055%=      5-min Rain = 0
KWE2 140716Z 22005KT 17/08 A2999 RMK A01 T01660076  RH  055%=      5-min Rain = 0
KWE2 140717Z 22005KT 17/08 A2999 RMK A01 T01660076  RH  055%=      5-min Rain = 0
KWE2 140718Z 21006KT 17/08 A2999 RMK A01 T01670076  RH  055%=      5-min Rain = 0
KWE2 140719Z 22006KT 17/08 A2999 RMK A01 T01680077  RH  055%=      5-min Rain = 0
KWE2 140720Z 22006KT 17/08 A2999 RMK A01 T01690077  RH  054%=      5-min Rain = 0
KWE2 140721Z 21006KT 17/08 A2999 RMK A01 T01700077  RH  054%=      5-min Rain = 0
KWE2 140722Z 22006KT 17/08 A2999 RMK A01 T01710077  RH  054%=      5-min Rain = 0
KWE2 140723Z 22007KT 17/08 A2999 RMK A01 T01720077  RH  054%=      5-min Rain = 0
KWE2 140724Z 22007KT 17/08 A2999 RMK A01 T01730077  RH  053%=      5-min Rain = 0
KWE2 140725Z 22007KT 17/08 A2999 RMK A01 T01740077  RH  053%=      5-min Rain = 0
KWE2 140726Z 22007KT 18/08 A2999 RMK A01 T01750077  RH  053%=      5-min Rain = 0
KWE2 140727Z 22008KT 18/08 A2999 RMK A01 T01750077  RH  052%=      5-min Rain = 0
KWE2 140728Z 22008KT 18/08 A2999 RMK A01 T01760077  RH  052%=      5-min Rain = 0
KWE2 140729Z 22007KT 18/08 A2999 RMK A01 T01760077  RH  052%=      5-min Rain = 0
KWE2 140730Z 22008KT 18/08 A2999 RMK A01 T01760077  RH  052%=      5-min Rain = 0
KWE2 140731Z 22007KT 18/08 A2999 RMK A01 T01760077  RH  052%=      5-min Rain = 0
KWE2 140732Z 22007KT 18/08 A2999 RMK A01 T01770077  RH  052%=      5-min Rain = 0
KWE2 140733Z 22007KT 18/08 A2999 RMK A01 T01770077  RH  052%=      5-min Rain = 0
KWE2 140734Z 23007KT 18/08 A2999 RMK A01 T01770077  RH  052%=      5-min Rain = 0
KWE2 140735Z 22007KT 18/08 A2999 RMK A01 T01770077  RH  052%=      5-min Rain = 0
KWE2 140736Z 23007KT 18/08 A2999 RMK A01 T01760077  RH  052%=      5-min Rain = 0
KWE2 140737Z 22006KT 18/08 A2999 RMK A01 T01760077  RH  052%=      5-min Rain = 0
KWE2 140738Z 23007KT 18/08 A2999 RMK A01 T01760077  RH  052%=      5-min Rain = 0
KWE2 140739Z 23007KT 18/08 A2999 RMK A01 T01760077  RH  052%=      5-min Rain = 0
KWE2 140740Z 23007KT 18/08 A2999 RMK A01 T01760077  RH  052%=      5-min Rain = 0
KWE2 140741Z 23006KT 18/08 A2999 RMK A01 T01760077  RH  052%=      5-min Rain = 0
KWE2 140742Z 23006KT 18/08 A2999 RMK A01 T01760077  RH  052%=      5-min Rain = 0
KWE2 140743Z 23006KT 18/08 A2999 RMK A01 T01750077  RH  052%=      5-min Rain = 0
KWE2 140744Z 23006KT 18/08 A2999 RMK A01 T01750077  RH  053%=      5-min Rain = 0
KWE2 140745Z 23006KT 17/08 A2999 RMK A01 T01740077  RH  053%=      5-min Rain = 0
KWE2 140746Z 23006KT 17/08 A2999 RMK A01 T01740077  RH  053%=      5-min Rain = 0
KWE2 140747Z 23006KT 17/08 A2999 RMK A01 T01730077  RH  053%=      5-min Rain = 0
KWE2 140748Z 22006KT 17/08 A2999 RMK A01 T01730077  RH  053%=      5-min Rain = 0
KWE2 140749Z 22006KT 17/08 A2999 RMK A01 T01720077  RH  054%=      5-min Rain = 0
KWE2 140750Z 22006KT 17/08 A2999 RMK A01 T01720077  RH  054%=      5-min Rain = 0
KWE2 140751Z 22006KT 17/08 A2999 RMK A01 T01720078  RH  054%=      5-min Rain = 0
KWE2 140752Z 23006KT 17/08 A2999 RMK A01 T01720077  RH  054%=      5-min Rain = 0
KWE2 140753Z 23006KT 17/08 A2999 RMK A01 T01730077  RH  054%=      5-min Rain = 0
KWE2 140754Z 23006KT 17/08 A2999 RMK A01 T01730077  RH  053%=      5-min Rain = 0
KWE2 140755Z 23007KT 17/08 A2999 RMK A01 T01730077  RH  053%=      5-min Rain = 0
KWE2 140756Z 23006KT 17/08 A2999 RMK A01 T01730077  RH  054%=      5-min Rain = 0
KWE2 140757Z 23006KT 17/08 A2999 RMK A01 T01730078  RH  053%=      5-min Rain = 0
KWE2 140758Z 23006KT 17/08 A2999 RMK A01 T01730077  RH  053%=      5-min Rain = 0
KWE2 140759Z 23007KT 17/08 A2999 RMK A01 T01730077  RH  053%=      5-min Rain = 0
KWE2 140800Z 23007KT 17/08 A2999 RMK A01 T01730078  RH  053%=      5-min Rain = 0
KWE2 140801Z 23006KT 17/08 A2999 RMK A01 T01730078  RH  053%=      5-min Rain = 0
KWE2 140802Z 22006KT 17/08 A2999 RMK A01 T01730078  RH  053%=      5-min Rain = 0
KWE2 140803Z 23007KT 17/08 A2999 RMK A01 T01730078  RH  053%=      5-min Rain = 0
KWE2 140804Z 23007KT 17/08 A2999 RMK A01 T01730078  RH  053%=      5-min Rain = 0
KWE2 140805Z 23007KT 17/08 A2999 RMK A01 T01740078  RH  053%=      5-min Rain = 0
KWE2 140806Z 22007KT 17/08 A2999 RMK A01 T01740078  RH  053%=      5-min Rain = 0
KWE2 140807Z 23007KT 17/08 A2999 RMK A01 T01740078  RH  053%=      5-min Rain = 0
KWE2 140808Z 23007KT 17/08 A2999 RMK A01 T01740078  RH  053%=      5-min Rain = 0
KWE2 140809Z 23006KT 17/08 A2999 RMK A01 T01740078  RH  053%=      5-min Rain = 0
KWE2 140810Z 23007KT 17/08 A2999 RMK A01 T01740078  RH  053%=      5-min Rain = 0
KWE2 140811Z 23007KT 17/08 A2999 RMK A01 T01740078  RH  053%=      5-min Rain = 0
KWE2 140812Z 23007KT 17/08 A2999 RMK A01 T01740078  RH  053%=      5-min Rain = 0
KWE2 140813Z 23007KT 17/08 A2999 RMK A01 T01740078  RH  053%=      5-min Rain = 0
KWE2 140814Z 23007KT 17/08 A2999 RMK A01 T01740078  RH  053%=      5-min Rain = 0
KWE2 140815Z 23006KT 17/08 A2999 RMK A01 T01730078  RH  053%=      5-min Rain = 0
KWE2 140816Z 23007KT 17/08 A2999 RMK A01 T01730078  RH  053%=      5-min Rain = 0
KWE2 140817Z 24007KT 17/08 A2999 RMK A01 T01730078  RH  054%=      5-min Rain = 0
KWE2 140818Z 23008KT 17/08 A2999 RMK A01 T01730078  RH  054%=      5-min Rain = 0
KWE2 140819Z 23008KT 17/08 A2999 RMK A01 T01730078  RH  054%=      5-min Rain = 0
KWE2 140820Z 23007KT 17/08 A2999 RMK A01 T01730078  RH  054%=      5-min Rain = 0
KWE2 140821Z 23007KT 17/08 A2999 RMK A01 T01720079  RH  054%=      5-min Rain = 0
KWE2 140822Z 23007KT 17/08 A2999 RMK A01 T01720079  RH  054%=      5-min Rain = 0
KWE2 140823Z 24007KT 17/08 A2998 RMK A01 T01720079  RH  054%=      5-min Rain = 0
KWE2 140824Z 24007KT 17/08 A2998 RMK A01 T01720079  RH  054%=      5-min Rain = 0
KWE2 140825Z 24007KT 17/08 A2998 RMK A01 T01720079  RH  054%=      5-min Rain = 0
KWE2 140826Z 24007KT 17/08 A2998 RMK A01 T01720079  RH  055%=      5-min Rain = 0
KWE2 140827Z 24007KT 17/08 A2998 RMK A01 T01710079  RH  055%=      5-min Rain = 0
KWE2 140828Z 24007KT 17/08 A2998 RMK A01 T01710080  RH  055%=      5-min Rain = 0
KWE2 140829Z 24007KT 17/08 A2998 RMK A01 T01710080  RH  055%=      5-min Rain = 0
KWE2 140830Z 24007KT 17/08 A2998 RMK A01 T01710080  RH  055%=      5-min Rain = 0
KWE2 140831Z 24007KT 17/08 A2998 RMK A01 T01700080  RH  055%=      5-min Rain = 0
KWE2 140832Z 24007KT 17/08 A2998 RMK A01 T01700080  RH  055%=      5-min Rain = 0
KWE2 140833Z 24007KT 17/08 A2998 RMK A01 T01700080  RH  056%=      5-min Rain = 0
KWE2 140834Z 23007KT 17/08 A2998 RMK A01 T01700081  RH  056%=      5-min Rain = 0
KWE2 140835Z 23007KT 17/08 A2998 RMK A01 T01700081  RH  056%=      5-min Rain = 0
KWE2 140836Z 23008KT 17/08 A2998 RMK A01 T01690081  RH  056%=      5-min Rain = 0
KWE2 140837Z 23008KT 17/08 A2998 RMK A01 T01690081  RH  056%=      5-min Rain = 0
KWE2 140838Z 23008KT 17/08 A2998 RMK A01 T01690081  RH  056%=      5-min Rain = 0
KWE2 140839Z 23007KT 17/08 A2998 RMK A01 T01690081  RH  056%=      5-min Rain = 0
KWE2 140840Z 23008KT 17/08 A2998 RMK A01 T01690081  RH  056%=      5-min Rain = 0
KWE2 140841Z 23007KT 17/08 A2998 RMK A01 T01690081  RH  056%=      5-min Rain = 0
KWE2 140842Z 23008KT 17/08 A2998 RMK A01 T01690081  RH  056%=      5-min Rain = 0
KWE2 140843Z 24007KT 17/08 A2998 RMK A01 T01690081  RH  056%=      5-min Rain = 0
KWE2 140844Z 24008KT 17/08 A2998 RMK A01 T01700081  RH  056%=      5-min Rain = 0
KWE2 140845Z 23007KT 17/08 A2998 RMK A01 T01700081  RH  056%=      5-min Rain = 0
KWE2 140846Z 24007KT 17/08 A2998 RMK A01 T01690081  RH  056%=      5-min Rain = 0
KWE2 140847Z 24007KT 17/08 A2998 RMK A01 T01690081  RH  056%=      5-min Rain = 0
KWE2 140848Z 24007KT 17/08 A2998 RMK A01 T01690082  RH  056%=      5-min Rain = 0
KWE2 140849Z 24008KT 17/08 A2998 RMK A01 T01680082  RH  056%=      5-min Rain = 0
KWE2 140850Z 24007KT 17/08 A2998 RMK A01 T01680082  RH  057%=      5-min Rain = 0
KWE2 140851Z 24007KT 17/08 A2998 RMK A01 T01680082  RH  057%=      5-min Rain = 0
KWE2 140852Z 24007KT 17/08 A2998 RMK A01 T01670082  RH  057%=      5-min Rain = 0
KWE2 140853Z 24006KT 17/08 A2998 RMK A01 T01670082  RH  057%=      5-min Rain = 0
KWE2 140854Z 24006KT 17/08 A2998 RMK A01 T01660082  RH  057%=      5-min Rain = 0
KWE2 140855Z 24006KT 17/08 A2998 RMK A01 T01660082  RH  057%=      5-min Rain = 0
KWE2 140856Z 24006KT 17/08 A2998 RMK A01 T01650082  RH  058%=      5-min Rain = 0
KWE2 140857Z 24006KT 17/08 A2998 RMK A01 T01650082  RH  058%=      5-min Rain = 0
KWE2 140858Z 24006KT 16/08 A2998 RMK A01 T01640082  RH  058%=      5-min Rain = 0
KWE2 140859Z 24006KT 16/08 A2998 RMK A01 T01640082  RH  058%=      5-min Rain = 0
KWE2 140900Z 25006KT 16/08 A2998 RMK A01 T01630082  RH  058%=      5-min Rain = 0
KWE2 140901Z 25006KT 16/08 A2998 RMK A01 T01630082  RH  059%=      5-min Rain = 0
KWE2 140902Z 25006KT 16/08 A2998 RMK A01 T01630082  RH  059%=      5-min Rain = 0
KWE2 140903Z 25006KT 16/08 A2998 RMK A01 T01620082  RH  059%=      5-min Rain = 0
KWE2 140904Z 25005KT 16/08 A2998 RMK A01 T01620082  RH  059%=      5-min Rain = 0
KWE2 140905Z 25005KT 16/08 A2998 RMK A01 T01620082  RH  059%=      5-min Rain = 0
KWE2 140906Z 25005KT 16/08 A2998 RMK A01 T01610082  RH  060%=      5-min Rain = 0
KWE2 140907Z 24005KT 16/08 A2998 RMK A01 T01600082  RH  060%=      5-min Rain = 0
KWE2 140908Z 24005KT 16/08 A2998 RMK A01 T01600082  RH  060%=      5-min Rain = 0
KWE2 140909Z 24005KT 16/08 A2998 RMK A01 T01590082  RH  060%=      5-min Rain = 0
KWE2 140910Z 24005KT 16/08 A2998 RMK A01 T01580082  RH  060%=      5-min Rain = 0
KWE2 140911Z 24005KT 16/08 A2998 RMK A01 T01580082  RH  061%=      5-min Rain = 0
KWE2 140912Z 24005KT 16/08 A2998 RMK A01 T01580082  RH  061%=      5-min Rain = 0
KWE2 140913Z 24005KT 16/08 A2998 RMK A01 T01570082  RH  061%=      5-min Rain = 0
KWE2 140914Z 24005KT 16/08 A2998 RMK A01 T01560082  RH  061%=      5-min Rain = 0
KWE2 140915Z 24005KT 16/08 A2998 RMK A01 T01560082  RH  061%=      5-min Rain = 0
KWE2 140916Z 24005KT 16/08 A2998 RMK A01 T01550082  RH  062%=      5-min Rain = 0
KWE2 140917Z 24005KT 16/08 A2998 RMK A01 T01550082  RH  062%=      5-min Rain = 0
KWE2 140918Z 24005KT 16/08 A2998 RMK A01 T01550083  RH  062%=      5-min Rain = 0
KWE2 140919Z 24005KT 15/08 A2998 RMK A01 T01540083  RH  062%=      5-min Rain = 0
KWE2 140920Z 23005KT 15/08 A2998 RMK A01 T01540083  RH  062%=      5-min Rain = 0
KWE2 140921Z 23005KT 16/08 A2998 RMK A01 T01550083  RH  062%=      5-min Rain = 0
KWE2 140922Z 24006KT 15/08 A2998 RMK A01 T01540083  RH  062%=      5-min Rain = 0
KWE2 140923Z 24006KT 15/08 A2998 RMK A01 T01540083  RH  062%=      5-min Rain = 0
KWE2 140924Z 24006KT 15/08 A2998 RMK A01 T01540083  RH  062%=      5-min Rain = 0
KWE2 140925Z 24005KT 15/08 A2998 RMK A01 T01540083  RH  062%=      5-min Rain = 0
KWE2 140926Z 24005KT 15/08 A2998 RMK A01 T01540083  RH  062%=      5-min Rain = 0
KWE2 140927Z 24005KT 16/08 A2998 RMK A01 T01550083  RH  062%=      5-min Rain = 0
KWE2 140928Z 25005KT 15/08 A2998 RMK A01 T01540083  RH  062%=      5-min Rain = 0
KWE2 140929Z 25005KT 15/08 A2997 RMK A01 T01540083  RH  062%=      5-min Rain = 0
KWE2 140930Z 25005KT 15/08 A2997 RMK A01 T01540083  RH  062%=      5-min Rain = 0
KWE2 140931Z 25005KT 16/08 A2997 RMK A01 T01550083  RH  062%=      5-min Rain = 0
KWE2 140932Z 24005KT 16/08 A2997 RMK A01 T01550083  RH  062%=      5-min Rain = 0
KWE2 140933Z 25005KT 16/08 A2997 RMK A01 T01550083  RH  062%=      5-min Rain = 0
KWE2 140934Z 24004KT 16/08 A2997 RMK A01 T01550083  RH  062%=      5-min Rain = 0
KWE2 140935Z 24005KT 16/08 A2997 RMK A01 T01550083  RH  062%=      5-min Rain = 0
KWE2 140936Z 24005KT 16/08 A2997 RMK A01 T01550083  RH  062%=      5-min Rain = 0
KWE2 140937Z 24005KT 16/08 A2997 RMK A01 T01550083  RH  062%=      5-min Rain = 0
KWE2 140938Z 24004KT 16/08 A2997 RMK A01 T01550083  RH  062%=      5-min Rain = 0
KWE2 140939Z 23004KT 16/08 A2997 RMK A01 T01550083  RH  062%=      5-min Rain = 0
KWE2 140940Z 23004KT 16/08 A2997 RMK A01 T01550083  RH  062%=      5-min Rain = 0
KWE2 140941Z 23004KT 16/08 A2997 RMK A01 T01550083  RH  062%=      5-min Rain = 0
KWE2 140942Z 23004KT 15/08 A2997 RMK A01 T01540083  RH  062%=      5-min Rain = 0
KWE2 140943Z 23004KT 15/08 A2997 RMK A01 T01540082  RH  062%=      5-min Rain = 0
KWE2 140944Z 23004KT 15/08 A2997 RMK A01 T01540082  RH  062%=      5-min Rain = 0
KWE2 140945Z 23004KT 15/08 A2997 RMK A01 T01540083  RH  063%=      5-min Rain = 0
KWE2 140946Z 23004KT 15/08 A2997 RMK A01 T01530083  RH  063%=      5-min Rain = 0
KWE2 140947Z 23003KT 15/08 A2997 RMK A01 T01530083  RH  063%=      5-min Rain = 0
KWE2 140948Z 22003KT 15/08 A2997 RMK A01 T01520082  RH  063%=      5-min Rain = 0
KWE2 140949Z 22003KT 15/08 A2997 RMK A01 T01520082  RH  063%=      5-min Rain = 0
KWE2 140950Z 22004KT 15/08 A2997 RMK A01 T01510082  RH  063%=      5-min Rain = 0
KWE2 140951Z 22004KT 15/08 A2997 RMK A01 T01510082  RH  064%=      5-min Rain = 0
KWE2 140952Z 22004KT 15/08 A2997 RMK A01 T01500083  RH  064%=      5-min Rain = 0
KWE2 140953Z 22004KT 15/08 A2997 RMK A01 T01500083  RH  064%=      5-min Rain = 0
KWE2 140954Z 23004KT 15/08 A2997 RMK A01 T01500083  RH  064%=      5-min Rain = 0
KWE2 140955Z 23004KT 15/08 A2997 RMK A01 T01500083  RH  064%=      5-min Rain = 0
KWE2 140956Z 23004KT 15/08 A2997 RMK A01 T01500083  RH  064%=      5-min Rain = 0
KWE2 140957Z 23004KT 15/08 A2997 RMK A01 T01500084  RH  064%=      5-min Rain = 0
KWE2 140958Z 23004KT 15/08 A2997 RMK A01 T01500084  RH  064%=      5-min Rain = 0
KWE2 140959Z 23004KT 15/08 A2997 RMK A01 T01500084  RH  064%=      5-min Rain = 0
KWE2 141000Z 24004KT 15/08 A2997 RMK A01 T01510084  RH  064%=      5-min Rain = 0
KWE2 141001Z 24005KT 15/08 A2997 RMK A01 T01510084  RH  064%=      5-min Rain = 0
KWE2 141002Z 25005KT 15/08 A2997 RMK A01 T01520084  RH  064%=      5-min Rain = 0
KWE2 141003Z 25005KT 15/08 A2997 RMK A01 T01510084  RH  064%=      5-min Rain = 0
KWE2 141004Z 25005KT 15/08 A2997 RMK A01 T01520084  RH  064%=      5-min Rain = 0
KWE2 141005Z 24005KT 15/08 A2997 RMK A01 T01520084  RH  064%=      5-min Rain = 0
KWE2 141006Z 24005KT 15/08 A2997 RMK A01 T01520084  RH  064%=      5-min Rain = 0
KWE2 141007Z 25006KT 15/08 A2997 RMK A01 T01520084  RH  064%=      5-min Rain = 0
KWE2 141008Z 25006KT 15/09 A2997 RMK A01 T01530085  RH  064%=      5-min Rain = 0
KWE2 141009Z 25006KT 15/08 A2997 RMK A01 T01530084  RH  063%=      5-min Rain = 0
KWE2 141010Z 25006KT 15/08 A2997 RMK A01 T01540084  RH  063%=      5-min Rain = 0
KWE2 141011Z 25006KT 16/08 A2997 RMK A01 T01550084  RH  063%=      5-min Rain = 0
KWE2 141012Z 25005KT 16/08 A2997 RMK A01 T01560084  RH  062%=      5-min Rain = 0
KWE2 141013Z 25006KT 16/08 A2997 RMK A01 T01560084  RH  062%=      5-min Rain = 0
KWE2 141014Z 26005KT 16/08 A2997 RMK A01 T01570084  RH  062%=      5-min Rain = 0
KWE2 141015Z 26005KT 16/08 A2997 RMK A01 T01570084  RH  062%=      5-min Rain = 0
KWE2 141016Z 26005KT 16/08 A2997 RMK A01 T01570084  RH  061%=      5-min Rain = 0
KWE2 141017Z 26005KT 16/08 A2997 RMK A01 T01580084  RH  062%=      5-min Rain = 0
KWE2 141018Z 27005KT 16/08 A2997 RMK A01 T01570084  RH  062%=      5-min Rain = 0
KWE2 141019Z 27004KT 16/08 A2997 RMK A01 T01580084  RH  062%=      5-min Rain = 0
KWE2 141020Z 26004KT 16/08 A2997 RMK A01 T01570084  RH  061%=      5-min Rain = 0
KWE2 141021Z 25004KT 16/08 A2997 RMK A01 T01580084  RH  061%=      5-min Rain = 0
KWE2 141022Z 24004KT 16/08 A2997 RMK A01 T01570083  RH  061%=      5-min Rain = 0
KWE2 141023Z 24004KT 16/08 A2997 RMK A01 T01570083  RH  061%=      5-min Rain = 0
KWE2 141024Z 24004KT 16/08 A2997 RMK A01 T01580084  RH  061%=      5-min Rain = 0
KWE2 141025Z 24004KT 16/08 A2997 RMK A01 T01580083  RH  061%=      5-min Rain = 0
KWE2 141026Z 24005KT 16/08 A2997 RMK A01 T01580083  RH  061%=      5-min Rain = 0
KWE2 141027Z 24005KT 16/08 A2997 RMK A01 T01580083  RH  061%=      5-min Rain = 0
KWE2 141028Z 24005KT 16/08 A2997 RMK A01 T01590083  RH  061%=      5-min Rain = 0
KWE2 141029Z 24005KT 16/08 A2997 RMK A01 T01590083  RH  061%=      5-min Rain = 0
KWE2 141030Z 25005KT 16/08 A2997 RMK A01 T01580083  RH  061%=      5-min Rain = 0
KWE2 141031Z 25005KT 16/08 A2997 RMK A01 T01590084  RH  061%=      5-min Rain = 0
KWE2 141032Z 25005KT 16/08 A2997 RMK A01 T01580083  RH  061%=      5-min Rain = 0
KWE2 141033Z 25006KT 16/08 A2997 RMK A01 T01580084  RH  061%=      5-min Rain = 0
KWE2 141034Z 26006KT 16/08 A2997 RMK A01 T01580084  RH  061%=      5-min Rain = 0
KWE2 141035Z 27006KT 16/08 A2997 RMK A01 T01590084  RH  061%=      5-min Rain = 0
KWE2 141036Z 28007KT 16/08 A2997 RMK A01 T01580084  RH  061%=      5-min Rain = 0
KWE2 141037Z 27006KT 16/08 A2997 RMK A01 T01580084  RH  061%=      5-min Rain = 0
KWE2 141038Z 26005KT 16/08 A2997 RMK A01 T01580084  RH  061%=      5-min Rain = 0
KWE2 141039Z 26004KT 16/08 A2997 RMK A01 T01580083  RH  061%=      5-min Rain = 0
KWE2 141040Z 25005KT 16/08 A2997 RMK A01 T01580083  RH  061%=      5-min Rain = 0
KWE2 141041Z 25004KT 16/08 A2997 RMK A01 T01590082  RH  061%=      5-min Rain = 0
KWE2 141042Z 25004KT 16/08 A2997 RMK A01 T01590082  RH  060%=      5-min Rain = 0
KWE2 141043Z 25004KT 16/08 A2997 RMK A01 T01590082  RH  060%=      5-min Rain = 0
KWE2 141044Z 26004KT 16/08 A2997 RMK A01 T01590083  RH  060%=      5-min Rain = 0
KWE2 141045Z 25005KT 16/08 A2997 RMK A01 T01590083  RH  060%=      5-min Rain = 0
KWE2 141046Z 25005KT 16/08 A2997 RMK A01 T01590083  RH  060%=      5-min Rain = 0
KWE2 141047Z 25005KT 16/08 A2997 RMK A01 T01590083  RH  060%=      5-min Rain = 0
KWE2 141048Z 25005KT 16/08 A2997 RMK A01 T01590083  RH  060%=      5-min Rain = 0
KWE2 141049Z 24005KT 16/08 A2997 RMK A01 T01600083  RH  060%=      5-min Rain = 0
KWE2 141050Z 24005KT 16/08 A2997 RMK A01 T01590083  RH  060%=      5-min Rain = 0
KWE2 141051Z 24005KT 16/08 A2997 RMK A01 T01590083  RH  060%=      5-min Rain = 0
KWE2 141052Z 24005KT 16/08 A2997 RMK A01 T01590083  RH  060%=      5-min Rain = 0
KWE2 141053Z 24005KT 16/08 A2997 RMK A01 T01590083  RH  060%=      5-min Rain = 0
KWE2 141054Z 24006KT 16/08 A2997 RMK A01 T01590083  RH  061%=      5-min Rain = 0
KWE2 141055Z 24006KT 16/08 A2998 RMK A01 T01590083  RH  061%=      5-min Rain = 0
KWE2 141056Z 23006KT 16/08 A2998 RMK A01 T01580083  RH  061%=      5-min Rain = 0
KWE2 141057Z 23006KT 16/08 A2998 RMK A01 T01580083  RH  061%=      5-min Rain = 0
KWE2 141058Z 23006KT 16/08 A2998 RMK A01 T01580083  RH  061%=      5-min Rain = 0
KWE2 141059Z 23005KT 16/08 A2998 RMK A01 T01580083  RH  061%=      5-min Rain = 0
KWE2 141100Z 23004KT 16/08 A2998 RMK A01 T01580084  RH  061%=      5-min Rain = 0
KWE2 141101Z 22004KT 16/08 A2998 RMK A01 T01580084  RH  061%=      5-min Rain = 0
KWE2 141102Z 20004KT 16/08 A2998 RMK A01 T01570083  RH  061%=      5-min Rain = 0
KWE2 141103Z 19005KT 16/08 A2998 RMK A01 T01570083  RH  062%=      5-min Rain = 0
KWE2 141104Z 19004KT 16/08 A2998 RMK A01 T01560083  RH  062%=      5-min Rain = 0
KWE2 141105Z 21003KT 16/08 A2998 RMK A01 T01550084  RH  063%=      5-min Rain = 0
KWE2 141106Z 23003KT 15/08 A2998 RMK A01 T01540084  RH  063%=      5-min Rain = 0
KWE2 141107Z 24003KT 15/09 A2999 RMK A01 T01540085  RH  063%=      5-min Rain = 0
KWE2 141108Z 25003KT 15/08 A2999 RMK A01 T01530084  RH  064%=      5-min Rain = 0
KWE2 141109Z 25003KT 15/09 A2999 RMK A01 T01520085  RH  064%=      5-min Rain = 0
KWE2 141110Z 26004KT 15/09 A2999 RMK A01 T01520085  RH  064%=      5-min Rain = 0
KWE2 141111Z 27004KT 15/09 A2999 RMK A01 T01510085  RH  064%=      5-min Rain = 0
KWE2 141112Z 28005KT 15/09 A2999 RMK A01 T01510085  RH  064%=      5-min Rain = 0
KWE2 141113Z 28004KT 15/09 A2999 RMK A01 T01510085  RH  064%=      5-min Rain = 0
KWE2 141114Z 26004KT 15/09 A2999 RMK A01 T01510085  RH  064%=      5-min Rain = 0
KWE2 141115Z 24004KT 15/08 A2999 RMK A01 T01510084  RH  064%=      5-min Rain = 0
KWE2 141116Z 22004KT 15/08 A2999 RMK A01 T01510084  RH  064%=      5-min Rain = 0
KWE2 141117Z 23004KT 15/09 A2999 RMK A01 T01510085  RH  064%=      5-min Rain = 0
KWE2 141118Z 24004KT 15/08 A2999 RMK A01 T01500084  RH  065%=      5-min Rain = 0
KWE2 141119Z 25004KT 15/08 A2999 RMK A01 T01500084  RH  065%=      5-min Rain = 0
KWE2 141120Z 26004KT 15/08 A2999 RMK A01 T01500084  RH  065%=      5-min Rain = 0
KWE2 141121Z 26004KT 15/08 A2999 RMK A01 T01500084  RH  065%=      5-min Rain = 0
KWE2 141122Z 25004KT 15/08 A2999 RMK A01 T01500083  RH  064%=      5-min Rain = 0
KWE2 141123Z 23004KT 15/08 A2999 RMK A01 T01500083  RH  064%=      5-min Rain = 0
KWE2 141124Z 23004KT 15/08 A2999 RMK A01 T01510083  RH  064%=      5-min Rain = 0
KWE2 141125Z 23004KT 15/08 A2999 RMK A01 T01500083  RH  064%=      5-min Rain = 0
KWE2 141126Z 25003KT 15/08 A2999 RMK A01 T01510083  RH  064%=      5-min Rain = 0
KWE2 141127Z 27003KT 15/08 A2999 RMK A01 T01500083  RH  064%=      5-min Rain = 0
KWE2 141128Z 28004KT 15/08 A2999 RMK A01 T01500083  RH  064%=      5-min Rain = 0
KWE2 141129Z 29005KT 15/08 A2999 RMK A01 T01500083  RH  064%=      5-min Rain = 0
KWE2 141130Z 28005KT 15/08 A2999 RMK A01 T01490083  RH  065%=      5-min Rain = 0
KWE2 141131Z 28004KT 15/08 A2999 RMK A01 T01480083  RH  065%=      5-min Rain = 0
KWE2 141132Z 27003KT 15/08 A2999 RMK A01 T01480083  RH  065%=      5-min Rain = 0
KWE2 141133Z 27003KT 15/08 A2999 RMK A01 T01470083  RH  065%=      5-min Rain = 0
KWE2 141134Z 27003KT 15/08 A2999 RMK A01 T01470083  RH  065%=      5-min Rain = 0
KWE2 141135Z 26003KT 15/08 A2999 RMK A01 T01470083  RH  066%=      5-min Rain = 0
KWE2 141136Z 26003KT 15/08 A2999 RMK A01 T01460083  RH  066%=      5-min Rain = 0
KWE2 141137Z 27004KT 15/08 A2999 RMK A01 T01460083  RH  066%=      5-min Rain = 0
KWE2 141138Z 26004KT 15/08 A2999 RMK A01 T01460083  RH  066%=      5-min Rain = 0
KWE2 141139Z 27003KT 15/08 A2999 RMK A01 T01460083  RH  066%=      5-min Rain = 0
KWE2 141140Z 27003KT 14/08 A2999 RMK A01 T01440083  RH  066%=      5-min Rain = 0
KWE2 141141Z 27004KT 14/08 A2999 RMK A01 T01440083  RH  067%=      5-min Rain = 0
KWE2 141142Z 27004KT 14/08 A2999 RMK A01 T01430083  RH  067%=      5-min Rain = 0
KWE2 141143Z 27004KT 14/08 A2999 RMK A01 T01420083  RH  067%=      5-min Rain = 0
KWE2 141144Z 28004KT 14/08 A2999 RMK A01 T01420083  RH  068%=      5-min Rain = 0
KWE2 141145Z 27004KT 14/08 A2999 RMK A01 T01410083  RH  068%=      5-min Rain = 0
KWE2 141146Z 26004KT 14/08 A2999 RMK A01 T01410083  RH  068%=      5-min Rain = 0
KWE2 141147Z 25004KT 14/08 A2999 RMK A01 T01400083  RH  068%=      5-min Rain = 0
KWE2 141148Z 25004KT 14/08 A2999 RMK A01 T01390082  RH  068%=      5-min Rain = 0
KWE2 141149Z 24004KT 14/08 A2999 RMK A01 T01390083  RH  069%=      5-min Rain = 0
KWE2 141150Z 24003KT 14/08 A2999 RMK A01 T01400083  RH  068%=      5-min Rain = 0
KWE2 141151Z 23003KT 14/08 A2999 RMK A01 T01400082  RH  068%=      5-min Rain = 0
KWE2 141152Z 22003KT 14/08 A2999 RMK A01 T01400082  RH  068%=      5-min Rain = 0
KWE2 141153Z 20003KT 14/08 A2999 RMK A01 T01390081  RH  068%=      5-min Rain = 0
KWE2 141154Z 19002KT 14/08 A2999 RMK A01 T01370080  RH  068%=      5-min Rain = 0
KWE2 141155Z 18003KT 14/08 A2999 RMK A01 T01350079  RH  069%=      5-min Rain = 0
KWE2 141156Z 18003KT 13/08 A2999 RMK A01 T01340079  RH  069%=      5-min Rain = 0
KWE2 141157Z 17003KT 13/08 A2999 RMK A01 T01330080  RH  070%=      5-min Rain = 0
KWE2 141158Z 17002KT 13/08 A2999 RMK A01 T01320079  RH  070%=      5-min Rain = 0
KWE2 141159Z 18002KT 13/08 A2999 RMK A01 T01310079  RH  071%=      5-min Rain = 0
KWE2 141200Z 20002KT 13/08 A2999 RMK A01 T01310081  RH  071%=      5-min Rain = 0
KWE2 141201Z 21002KT 13/08 A2999 RMK A01 T01310081  RH  071%=      5-min Rain = 0
KWE2 141202Z 21002KT 13/08 A2999 RMK A01 T01330081  RH  071%=      5-min Rain = 0
KWE2 141203Z 21002KT 13/08 A2999 RMK A01 T01340082  RH  071%=      5-min Rain = 0
KWE2 141204Z 22002KT 14/08 A2999 RMK A01 T01350082  RH  071%=      5-min Rain = 0
KWE2 141205Z 23002KT 14/08 A2999 RMK A01 T01350082  RH  070%=      5-min Rain = 0
KWE2 141206Z 24002KT 14/08 A2999 RMK A01 T01360082  RH  070%=      5-min Rain = 0
KWE2 141207Z 24003KT 14/08 A2999 RMK A01 T01360082  RH  070%=      5-min Rain = 0
KWE2 141208Z 24003KT 14/08 A2999 RMK A01 T01370082  RH  069%=      5-min Rain = 0
KWE2 141209Z 25003KT 14/08 A2999 RMK A01 T01370082  RH  069%=      5-min Rain = 0
KWE2 141210Z 25004KT 14/08 A2999 RMK A01 T01370082  RH  069%=      5-min Rain = 0
KWE2 141211Z 25004KT 14/08 A2999 RMK A01 T01370082  RH  069%=      5-min Rain = 0
KWE2 141212Z 25004KT 14/08 A2999 RMK A01 T01370082  RH  070%=      5-min Rain = 0
KWE2 141213Z 25004KT 14/08 A2999 RMK A01 T01370082  RH  070%=      5-min Rain = 0
KWE2 141214Z 24003KT 14/08 A2999 RMK A01 T01370082  RH  069%=      5-min Rain = 0
KWE2 141215Z 24003KT 14/08 A2999 RMK A01 T01370082  RH  069%=      5-min Rain = 0
KWE2 141216Z 23003KT 14/08 A2999 RMK A01 T01370082  RH  069%=      5-min Rain = 0
KWE2 141217Z 22003KT 14/08 A2999 RMK A01 T01380083  RH  070%=      5-min Rain = 0
KWE2 141218Z 20003KT 14/08 A2999 RMK A01 T01370081  RH  069%=      5-min Rain = 0
KWE2 141219Z 19004KT 14/08 A2999 RMK A01 T01360080  RH  069%=      5-min Rain = 0
KWE2 141220Z 17007KT 13/08 A2999 RMK A01 T01340079  RH  070%=      5-min Rain = 0
KWE2 141221Z 16009KT 13/08 A30 RMK A01 T01330081  RH  071%=      5-min Rain = 0
KWE2 141222Z 17007KT 13/08 A30 RMK A01 T01330082  RH  071%=      5-min Rain = 0
KWE2 141223Z 18007KT 13/08 A30 RMK A01 T01340082  RH  071%=      5-min Rain = 0
KWE2 141224Z 19005KT 14/08 A30 RMK A01 T01360083  RH  070%=      5-min Rain = 0
KWE2 141225Z 22004KT 14/08 A30 RMK A01 T01380083  RH  069%=      5-min Rain = 0
KWE2 141226Z 21004KT 14/08 A30 RMK A01 T01390082  RH  068%=      5-min Rain = 0
KWE2 141227Z 19005KT 14/08 A30 RMK A01 T01410082  RH  068%=      5-min Rain = 0
KWE2 141228Z 18006KT 14/08 A30 RMK A01 T01410082  RH  067%=      5-min Rain = 0
KWE2 141229Z 17007KT 14/08 A30 RMK A01 T01410082  RH  067%=      5-min Rain = 0
KWE2 141230Z 17006KT 14/08 A30 RMK A01 T01410082  RH  068%=      5-min Rain = 0
KWE2 141231Z 18005KT 14/08 A30 RMK A01 T01410083  RH  068%=      5-min Rain = 0
KWE2 141232Z 20004KT 14/08 A30 RMK A01 T01410082  RH  068%=      5-min Rain = 0
KWE2 141233Z 22004KT 14/08 A30 RMK A01 T01410082  RH  068%=      5-min Rain = 0
KWE2 141234Z 21004KT 14/08 A30 RMK A01 T01420082  RH  067%=      5-min Rain = 0
KWE2 141235Z 20003KT 14/08 A30 RMK A01 T01430082  RH  067%=      5-min Rain = 0
KWE2 141236Z 19004KT 14/08 A30 RMK A01 T01440082  RH  067%=      5-min Rain = 0
KWE2 141237Z 18004KT 14/08 A30 RMK A01 T01440082  RH  066%=      5-min Rain = 0
KWE2 141238Z 17004KT 14/08 A30 RMK A01 T01440082  RH  067%=      5-min Rain = 0
KWE2 141239Z 17004KT 14/08 A30 RMK A01 T01430083  RH  067%=      5-min Rain = 0
KWE2 141240Z 18004KT 14/08 A30 RMK A01 T01420082  RH  067%=      5-min Rain = 0
KWE2 141241Z 19004KT 14/08 A30 RMK A01 T01420083  RH  067%=      5-min Rain = 0
KWE2 141242Z 19004KT 14/08 A30 RMK A01 T01420083  RH  067%=      5-min Rain = 0
KWE2 141243Z 18004KT 14/08 A30 RMK A01 T01420083  RH  067%=      5-min Rain = 0
KWE2 141244Z 18005KT 14/08 A30 RMK A01 T01430083  RH  067%=      5-min Rain = 0
KWE2 141245Z 17005KT 14/08 A30 RMK A01 T01420083  RH  068%=      5-min Rain = 0
KWE2 141246Z 17005KT 14/08 A30 RMK A01 T01410083  RH  068%=      5-min Rain = 0
KWE2 141247Z 17005KT 14/08 A3001 RMK A01 T01400083  RH  068%=      5-min Rain = 0
KWE2 141248Z 17004KT 14/08 A3001 RMK A01 T01390083  RH  069%=      5-min Rain = 0
KWE2 141249Z 18004KT 14/08 A3001 RMK A01 T01390083  RH  069%=      5-min Rain = 0
KWE2 141250Z 18004KT 14/08 A3001 RMK A01 T01390083  RH  069%=      5-min Rain = 0
KWE2 141251Z 18004KT 14/08 A3001 RMK A01 T01390083  RH  069%=      5-min Rain = 0
KWE2 141252Z 19004KT 14/08 A3001 RMK A01 T01390083  RH  069%=      5-min Rain = 0
KWE2 141253Z 20003KT 14/08 A3001 RMK A01 T01380083  RH  069%=      5-min Rain = 0
KWE2 141254Z 21003KT 14/08 A3001 RMK A01 T01380084  RH  070%=      5-min Rain = 0
KWE2 141255Z 21003KT 14/08 A30 RMK A01 T01380084  RH  070%=      5-min Rain = 0
KWE2 141256Z 21003KT 14/08 A30 RMK A01 T01380084  RH  070%=      5-min Rain = 0
KWE2 141257Z 21003KT 14/08 A30 RMK A01 T01380084  RH  070%=      5-min Rain = 0
KWE2 141258Z 20003KT 14/08 A30 RMK A01 T01380084  RH  070%=      5-min Rain = 0
KWE2 141259Z 20003KT 14/08 A30 RMK A01 T01380084  RH  070%=      5-min Rain = 0
KWE2 141300Z 19003KT 14/08 A30 RMK A01 T01380084  RH  070%=      5-min Rain = 0
KWE2 141301Z 18003KT 14/08 A30 RMK A01 T01380084  RH  070%=      5-min Rain = 0
KWE2 141302Z 18003KT 14/08 A30 RMK A01 T01380084  RH  070%=      5-min Rain = 0
KWE2 141303Z 18003KT 14/08 A30 RMK A01 T01370083  RH  070%=      5-min Rain = 0
KWE2 141304Z 17003KT 14/08 A30 RMK A01 T01360082  RH  070%=      5-min Rain = 0
KWE2 141305Z 18003KT 14/08 A30 RMK A01 T01350083  RH  071%=      5-min Rain = 0
KWE2 141306Z 18003KT 14/08 A30 RMK A01 T01350083  RH  071%=      5-min Rain = 0
KWE2 141307Z 18003KT 14/08 A30 RMK A01 T01350084  RH  071%=      5-min Rain = 0
KWE2 141308Z 18004KT 14/08 A30 RMK A01 T01350084  RH  071%=      5-min Rain = 0
KWE2 141309Z 18004KT 14/08 A30 RMK A01 T01350084  RH  071%=      5-min Rain = 0
KWE2 141310Z 17005KT 14/08 A30 RMK A01 T01350084  RH  071%=      5-min Rain = 0
KWE2 141311Z 16006KT 13/08 A3001 RMK A01 T01340082  RH  071%=      5-min Rain = 0
KWE2 141312Z 16006KT 13/08 A3001 RMK A01 T01330082  RH  071%=      5-min Rain = 0
KWE2 141313Z 16006KT 13/08 A3001 RMK A01 T01330083  RH  072%=      5-min Rain = 0
KWE2 141314Z 16005KT 13/09 A3001 RMK A01 T01340085  RH  072%=      5-min Rain = 0
KWE2 141315Z 17004KT 14/09 A3001 RMK A01 T01360086  RH  072%=      5-min Rain = 0
KWE2 141316Z 18003KT 14/09 A3001 RMK A01 T01370086  RH  072%=      5-min Rain = 0
KWE2 141317Z 19003KT 14/09 A30 RMK A01 T01380087  RH  071%=      5-min Rain = 0
KWE2 141318Z 20003KT 14/09 A3001 RMK A01 T01390087  RH  071%=      5-min Rain = 0
KWE2 141319Z 20003KT 14/09 A3001 RMK A01 T01390087  RH  071%=      5-min Rain = 0
KWE2 141320Z 20003KT 14/09 A3001 RMK A01 T01400087  RH  070%=      5-min Rain = 0
KWE2 141321Z 19003KT 14/09 A3001 RMK A01 T01410087  RH  070%=      5-min Rain = 0
KWE2 141322Z 18005KT 14/09 A3001 RMK A01 T01410087  RH  070%=      5-min Rain = 0
KWE2 141323Z 17006KT 14/09 A3001 RMK A01 T01420087  RH  070%=      5-min Rain = 0
KWE2 141324Z 17006KT 14/09 A3002 RMK A01 T01420088  RH  070%=      5-min Rain = 0
KWE2 141325Z 16006KT 14/09 A3002 RMK A01 T01420087  RH  069%=      5-min Rain = 0
KWE2 141326Z 16006KT 14/09 A3002 RMK A01 T01430088  RH  069%=      5-min Rain = 0
KWE2 141327Z 16005KT 14/09 A3002 RMK A01 T01430088  RH  070%=      5-min Rain = 0
KWE2 141328Z 17004KT 14/09 A3002 RMK A01 T01430089  RH  070%=      5-min Rain = 0
KWE2 141329Z 18004KT 14/09 A3002 RMK A01 T01430089  RH  070%=      5-min Rain = 0
KWE2 141330Z 19005KT 14/09 A3002 RMK A01 T01430089  RH  070%=      5-min Rain = 0
KWE2 141331Z 19005KT 14/09 A3002 RMK A01 T01430089  RH  070%=      5-min Rain = 0
KWE2 141332Z 19005KT 14/09 A3002 RMK A01 T01440089  RH  070%=      5-min Rain = 0
KWE2 141333Z 19005KT 14/09 A3002 RMK A01 T01440090  RH  070%=      5-min Rain = 0
KWE2 141334Z 19005KT 15/09 A3002 RMK A01 T01450090  RH  070%=      5-min Rain = 0
KWE2 141335Z 20004KT 15/09 A3001 RMK A01 T01450089  RH  069%=      5-min Rain = 0
KWE2 141336Z 20005KT 15/09 A3001 RMK A01 T01460090  RH  069%=      5-min Rain = 0
KWE2 141337Z 20005KT 15/09 A3001 RMK A01 T01460090  RH  069%=      5-min Rain = 0
KWE2 141338Z 19006KT 15/09 A3002 RMK A01 T01460090  RH  069%=      5-min Rain = 0
KWE2 141339Z 18006KT 15/09 A3002 RMK A01 T01470090  RH  069%=      5-min Rain = 0
KWE2 141340Z 18006KT 15/09 A3002 RMK A01 T01480090  RH  068%=      5-min Rain = 0
KWE2 141341Z 17006KT 15/09 A3002 RMK A01 T01490090  RH  068%=      5-min Rain = 0
KWE2 141342Z 17006KT 15/09 A3002 RMK A01 T01500090  RH  068%=      5-min Rain = 0
KWE2 141343Z 17005KT 15/09 A3002 RMK A01 T01510091  RH  067%=      5-min Rain = 0
KWE2 141344Z 17004KT 15/09 A3002 RMK A01 T01510091  RH  067%=      5-min Rain = 0
KWE2 141345Z 17004KT 15/09 A3002 RMK A01 T01520091  RH  067%=      5-min Rain = 0
KWE2 141346Z 17005KT 15/09 A3002 RMK A01 T01530091  RH  067%=      5-min Rain = 0
KWE2 141347Z 17005KT 15/09 A3002 RMK A01 T01530091  RH  066%=      5-min Rain = 0
KWE2 141348Z 17005KT 15/09 A3002 RMK A01 T01540091  RH  066%=      5-min Rain = 0
KWE2 141349Z 17005KT 15/09 A3001 RMK A01 T01540091  RH  066%=      5-min Rain = 0
KWE2 141350Z 17004KT 15/09 A3001 RMK A01 T01540091  RH  066%=      5-min Rain = 0
KWE2 141351Z 18004KT 16/09 A3001 RMK A01 T01550091  RH  066%=      5-min Rain = 0
KWE2 141352Z 18005KT 16/09 A3001 RMK A01 T01550091  RH  066%=      5-min Rain = 0
KWE2 141353Z 18005KT 16/09 A3001 RMK A01 T01550091  RH  066%=      5-min Rain = 0
KWE2 141354Z 18005KT 16/09 A3001 RMK A01 T01560092  RH  066%=      5-min Rain = 0
KWE2 141355Z 18005KT 16/09 A3001 RMK A01 T01560092  RH  066%=      5-min Rain = 0
KWE2 141356Z 18005KT 16/09 A3001 RMK A01 T01560092  RH  065%=      5-min Rain = 0
KWE2 141357Z 18004KT 16/09 A3001 RMK A01 T01560091  RH  065%=      5-min Rain = 0
KWE2 141358Z 18005KT 16/09 A3001 RMK A01 T01560091  RH  065%=      5-min Rain = 0
KWE2 141359Z 18005KT 16/09 A3001 RMK A01 T01570091  RH  065%=      5-min Rain = 0
KWE2 141400Z 18005KT 16/09 A3001 RMK A01 T01580092  RH  065%=      5-min Rain = 0
KWE2 141401Z 18005KT 16/09 A3001 RMK A01 T01580092  RH  065%=      5-min Rain = 0
KWE2 141402Z 17004KT 16/09 A3001 RMK A01 T01580092  RH  065%=      5-min Rain = 0
KWE2 141403Z 17005KT 16/09 A3001 RMK A01 T01590092  RH  065%=      5-min Rain = 0
KWE2 141404Z 17004KT 16/09 A3001 RMK A01 T01590092  RH  064%=      5-min Rain = 0
KWE2 141405Z 18004KT 16/09 A3002 RMK A01 T01590092  RH  064%=      5-min Rain = 0
KWE2 141406Z 17005KT 16/09 A3002 RMK A01 T01590092  RH  064%=      5-min Rain = 0
KWE2 141407Z 17006KT 16/09 A3002 RMK A01 T01590092  RH  064%=      5-min Rain = 0
KWE2 141408Z 18006KT 16/09 A3002 RMK A01 T01600093  RH  064%=      5-min Rain = 0
KWE2 141409Z 17006KT 16/09 A3002 RMK A01 T01600093  RH  064%=      5-min Rain = 0
KWE2 141410Z 18006KT 16/09 A3002 RMK A01 T01600093  RH  064%=      5-min Rain = 0
KWE2 141411Z 18006KT 16/09 A3002 RMK A01 T01600092  RH  064%=      5-min Rain = 0
KWE2 141412Z 18006KT 16/09 A3002 RMK A01 T01610093  RH  064%=      5-min Rain = 0
KWE2 141413Z 18005KT 16/09 A3002 RMK A01 T01610093  RH  064%=      5-min Rain = 0
KWE2 141414Z 18006KT 16/09 A3002 RMK A01 T01610093  RH  064%=      5-min Rain = 0
KWE2 141415Z 18006KT 16/09 A3002 RMK A01 T01620093  RH  064%=      5-min Rain = 0
KWE2 141416Z 18005KT 16/09 A3002 RMK A01 T01620093  RH  063%=      5-min Rain = 0
KWE2 141417Z 18005KT 16/09 A3002 RMK A01 T01630093  RH  063%=      5-min Rain = 0
KWE2 141418Z 18005KT 16/09 A3002 RMK A01 T01630093  RH  063%=      5-min Rain = 0
KWE2 141419Z 18006KT 16/09 A3002 RMK A01 T01640092  RH  063%=      5-min Rain = 0
KWE2 141420Z 18006KT 17/09 A3002 RMK A01 T01650093  RH  062%=      5-min Rain = 0
KWE2 141421Z 19005KT 17/09 A3002 RMK A01 T01650092  RH  062%=      5-min Rain = 0
KWE2 141422Z 19004KT 17/09 A3003 RMK A01 T01660092  RH  062%=      5-min Rain = 0
KWE2 141423Z 19003KT 17/09 A3003 RMK A01 T01660093  RH  062%=      5-min Rain = 0
KWE2 141424Z 19004KT 17/09 A3003 RMK A01 T01670093  RH  062%=      5-min Rain = 0
KWE2 141425Z 20004KT 17/09 A3003 RMK A01 T01680093  RH  061%=      5-min Rain = 0
KWE2 141426Z 19005KT 17/09 A3003 RMK A01 T01680093  RH  061%=      5-min Rain = 0
KWE2 141427Z 19004KT 17/09 A3003 RMK A01 T01690093  RH  061%=      5-min Rain = 0
KWE2 141428Z 20005KT 17/09 A3003 RMK A01 T01690093  RH  060%=      5-min Rain = 0
KWE2 141429Z 19004KT 17/09 A3003 RMK A01 T01700093  RH  060%=      5-min Rain = 0
KWE2 141430Z 19004KT 17/09 A3003 RMK A01 T01700093  RH  060%=      5-min Rain = 0
KWE2 141431Z 19004KT 17/09 A3003 RMK A01 T01710093  RH  060%=      5-min Rain = 0
KWE2 141432Z 20005KT 17/09 A3003 RMK A01 T01710093  RH  060%=      5-min Rain = 0
KWE2 141433Z 20004KT 17/09 A3003 RMK A01 T01710093  RH  060%=      5-min Rain = 0
KWE2 141434Z 20003KT 17/09 A3003 RMK A01 T01720094  RH  060%=      5-min Rain = 0
KWE2 141435Z 20004KT 17/09 A3003 RMK A01 T01720094  RH  060%=      5-min Rain = 0
KWE2 141436Z 20004KT 17/09 A3003 RMK A01 T01730094  RH  060%=      5-min Rain = 0
KWE2 141437Z 20005KT 17/09 A3003 RMK A01 T01730094  RH  060%=      5-min Rain = 0
KWE2 141438Z 19004KT 17/09 A3003 RMK A01 T01730094  RH  060%=      5-min Rain = 0
KWE2 141439Z 20004KT 17/10 A3003 RMK A01 T01740095  RH  060%=      5-min Rain = 0
KWE2 141440Z 19003KT 18/10 A3003 RMK A01 T01750095  RH  059%=      5-min Rain = 0
KWE2 141441Z 19005KT 18/10 A3003 RMK A01 T01750095  RH  059%=      5-min Rain = 0
KWE2 141442Z 19005KT 18/09 A3003 RMK A01 T01750094  RH  059%=      5-min Rain = 0
KWE2 141443Z 19005KT 18/10 A3003 RMK A01 T01760095  RH  059%=      5-min Rain = 0
KWE2 141444Z 19005KT 18/09 A3003 RMK A01 T01760094  RH  059%=      5-min Rain = 0
KWE2 141445Z 19005KT 18/10 A3003 RMK A01 T01760095  RH  059%=      5-min Rain = 0
KWE2 141446Z 19005KT 18/10 A3003 RMK A01 T01770095  RH  059%=      5-min Rain = 0
KWE2 141447Z 19004KT 18/10 A3003 RMK A01 T01770095  RH  059%=      5-min Rain = 0
KWE2 141448Z 20005KT 18/10 A3003 RMK A01 T01780096  RH  059%=      5-min Rain = 0
KWE2 141449Z 20005KT 18/10 A3003 RMK A01 T01780096  RH  058%=      5-min Rain = 0
KWE2 141450Z 20006KT 18/10 A3003 RMK A01 T01790096  RH  058%=      5-min Rain = 0
KWE2 141451Z 21006KT 18/10 A3003 RMK A01 T01790096  RH  058%=      5-min Rain = 0
KWE2 141452Z 21004KT 18/10 A3003 RMK A01 T01790096  RH  058%=      5-min Rain = 0
KWE2 141453Z 21005KT 18/10 A3004 RMK A01 T01800097  RH  058%=      5-min Rain = 0
KWE2 141454Z 21006KT 18/10 A3004 RMK A01 T01810097  RH  058%=      5-min Rain = 0
KWE2 141455Z 21007KT 18/10 A3004 RMK A01 T01810097  RH  058%=      5-min Rain = 0
KWE2 141456Z 20007KT 18/10 A3004 RMK A01 T01810097  RH  058%=      5-min Rain = 0
KWE2 141457Z 21009KT 18/10 A3004 RMK A01 T01820096  RH  057%=      5-min Rain = 0
KWE2 141458Z 21008KT 18/10 A3004 RMK A01 T01820096  RH  057%=      5-min Rain = 0
KWE2 141459Z 21007KT 18/10 A3004 RMK A01 T01820096  RH  057%=      5-min Rain = 0
KWE2 141500Z 21005KT 18/10 A3004 RMK A01 T01820097  RH  058%=      5-min Rain = 0
KWE2 141501Z 21007KT 18/10 A3004 RMK A01 T01830097  RH  057%=      5-min Rain = 0
KWE2 141502Z 21006KT 18/10 A3004 RMK A01 T01830097  RH  057%=      5-min Rain = 0
KWE2 141503Z 22005KT 18/10 A3004 RMK A01 T01830098  RH  057%=      5-min Rain = 0
KWE2 141504Z 22006KT 18/10 A3004 RMK A01 T01830097  RH  057%=      5-min Rain = 0
KWE2 141505Z 22005KT 18/10 A3004 RMK A01 T01840098  RH  057%=      5-min Rain = 0
KWE2 141506Z 22005KT 19/10 A3004 RMK A01 T01850099  RH  057%=      5-min Rain = 0
KWE2 141507Z 22005KT 19/10 A3004 RMK A01 T01860100  RH  057%=      5-min Rain = 0
KWE2 141508Z 22007KT 19/10 A3004 RMK A01 T01870100  RH  057%=      5-min Rain = 0
KWE2 141509Z 22008KT 19/10 A3004 RMK A01 T01870099  RH  056%=      5-min Rain = 0
KWE2 141510Z 22007KT 19/10 A3004 RMK A01 T01870099  RH  057%=      5-min Rain = 0
KWE2 141511Z 22006KT 19/10 A3004 RMK A01 T01870100  RH  057%=      5-min Rain = 0
KWE2 141512Z 22007KT 19/10 A3004 RMK A01 T01880100  RH  056%=      5-min Rain = 0
KWE2 141513Z 22008KT 19/10 A3004 RMK A01 T01880099  RH  056%=      5-min Rain = 0
KWE2 141514Z 22007KT 19/10 A3004 RMK A01 T01880099  RH  056%=      5-min Rain = 0
KWE2 141515Z 22008KT 19/10 A3004 RMK A01 T01880100  RH  056%=      5-min Rain = 0
KWE2 141516Z 21007KT 19/10 A3004 RMK A01 T01890100  RH  056%=      5-min Rain = 0
KWE2 141517Z 22006KT 19/10 A3004 RMK A01 T01890101  RH  057%=      5-min Rain = 0
KWE2 141518Z 23006KT 19/10 A3004 RMK A01 T01900101  RH  056%=      5-min Rain = 0
KWE2 141519Z 23007KT 19/10 A3004 RMK A01 T01900100  RH  056%=      5-min Rain = 0
KWE2 141520Z 23008KT 19/10 A3004 RMK A01 T01900101  RH  056%=      5-min Rain = 0
KWE2 141521Z 23008KT 19/10 A3004 RMK A01 T01900101  RH  056%=      5-min Rain = 0
KWE2 141522Z 22008KT 19/10 A3004 RMK A01 T01900101  RH  056%=      5-min Rain = 0
KWE2 141523Z 22007KT 19/10 A3004 RMK A01 T01900101  RH  056%=      5-min Rain = 0
KWE2 141524Z 22008KT 19/10 A3004 RMK A01 T01900101  RH  056%=      5-min Rain = 0
KWE2 141525Z 22007KT 19/10 A3004 RMK A01 T01910101  RH  056%=      5-min Rain = 0
KWE2 141526Z 22008KT 19/10 A3004 RMK A01 T01910102  RH  056%=      5-min Rain = 0
KWE2 141527Z 21007KT 19/10 A3004 RMK A01 T01910102  RH  056%=      5-min Rain = 0
KWE2 141528Z 21005KT 19/10 A3004 RMK A01 T01920103  RH  056%=      5-min Rain = 0
KWE2 141529Z 21008KT 19/10 A3004 RMK A01 T01930103  RH  056%=      5-min Rain = 0
KWE2 141530Z 22008KT 19/10 A3004 RMK A01 T01930103  RH  056%=      5-min Rain = 0
KWE2 141531Z 22007KT 19/10 A3004 RMK A01 T01930104  RH  056%=      5-min Rain = 0
KWE2 141532Z 22006KT 19/10 A3004 RMK A01 T01940104  RH  056%=      5-min Rain = 0
KWE2 141533Z 21008KT 19/10 A3004 RMK A01 T01940104  RH  056%=      5-min Rain = 0
KWE2 141534Z 22007KT 19/10 A3004 RMK A01 T01940104  RH  056%=      5-min Rain = 0
KWE2 141535Z 21006KT 19/11 A3004 RMK A01 T01940105  RH  056%=      5-min Rain = 0
KWE2 141536Z 21005KT 20/11 A3004 RMK A01 T01960105  RH  056%=      5-min Rain = 0
KWE2 141537Z 21006KT 20/11 A3004 RMK A01 T01960106  RH  056%=      5-min Rain = 0
KWE2 141538Z 22009KT 20/11 A3004 RMK A01 T01970106  RH  056%=      5-min Rain = 0
KWE2 141539Z 21007KT 20/11 A3004 RMK A01 T01970106  RH  056%=      5-min Rain = 0
KWE2 141540Z 21008KT 20/11 A3004 RMK A01 T01960106  RH  056%=      5-min Rain = 0
KWE2 141541Z 22008KT 20/11 A3004 RMK A01 T01960106  RH  056%=      5-min Rain = 0
KWE2 141542Z 21008KT 20/11 A3004 RMK A01 T01970107  RH  056%=      5-min Rain = 0
KWE2 141543Z 21008KT 20/11 A3004 RMK A01 T01980106  RH  055%=      5-min Rain = 0
KWE2 141544Z 21008KT 20/11 A3004 RMK A01 T01980107  RH  056%=      5-min Rain = 0
KWE2 141545Z 20010KT 20/11 A3004 RMK A01 T01980107  RH  056%=      5-min Rain = 0
KWE2 141546Z 21010KT 20/11 A3004 RMK A01 T01980107  RH  056%=      5-min Rain = 0
KWE2 141547Z 21009KT 20/11 A3004 RMK A01 T01990108  RH  056%=      5-min Rain = 0
KWE2 141548Z 21010KT 20/11 A3004 RMK A01 T01990108  RH  056%=      5-min Rain = 0
KWE2 141549Z 21010KT 20/11 A3004 RMK A01 T01990108  RH  056%=      5-min Rain = 0
KWE2 141550Z 21010KT 20/11 A3004 RMK A01 T02000109  RH  056%=      5-min Rain = 0
KWE2 141551Z 21009KT 20/11 A3004 RMK A01 T02000109  RH  056%=      5-min Rain = 0
KWE2 141552Z 21010KT 20/11 A3004 RMK A01 T02000110  RH  056%=      5-min Rain = 0
KWE2 141553Z 21009KT 20/11 A3004 RMK A01 T02010110  RH  056%=      5-min Rain = 0
KWE2 141554Z 20009KT 20/11 A3004 RMK A01 T02010111  RH  056%=      5-min Rain = 0
KWE2 141555Z 20010KT 20/11 A3004 RMK A01 T02020112  RH  056%=      5-min Rain = 0
KWE2 141556Z 21010KT 20/11 A3003 RMK A01 T02020111  RH  056%=      5-min Rain = 0
KWE2 141557Z 21009KT 20/11 A3003 RMK A01 T02020112  RH  056%=      5-min Rain = 0
KWE2 141558Z 21009KT 20/11 A3003 RMK A01 T02020112  RH  056%=      5-min Rain = 0
KWE2 141559Z 21009KT 20/11 A3003 RMK A01 T02020113  RH  056%=      5-min Rain = 0
KWE2 141600Z 22008KT 20/11 A3003 RMK A01 T02020113  RH  056%=      5-min Rain = 0
KWE2 141601Z 22008KT 20/11 A3003 RMK A01 T02020113  RH  057%=      5-min Rain = 0
KWE2 141602Z 21009KT 20/11 A3004 RMK A01 T02020113  RH  057%=      5-min Rain = 0
KWE2 141603Z 22010KT 20/11 A3004 RMK A01 T02030114  RH  056%=      5-min Rain = 0
KWE2 141604Z 22008KT 20/11 A3004 RMK A01 T02040114  RH  056%=      5-min Rain = 0
KWE2 141605Z 21009KT 21/12 A3004 RMK A01 T02050115  RH  056%=      5-min Rain = 0
KWE2 141606Z 22011KT 21/12 A3004 RMK A01 T02060115  RH  056%=      5-min Rain = 0
KWE2 141607Z 23009KT 21/12 A3004 RMK A01 T02060116  RH  056%=      5-min Rain = 0
KWE2 141608Z 23010KT 21/12 A3004 RMK A01 T02070116  RH  056%=      5-min Rain = 0
KWE2 141609Z 22009KT 21/12 A3004 RMK A01 T02080116  RH  056%=      5-min Rain = 0
KWE2 141610Z 21008KT 21/12 A3004 RMK A01 T02080116  RH  055%=      5-min Rain = 0
KWE2 141611Z 21010KT 21/12 A3004 RMK A01 T02090116  RH  055%=      5-min Rain = 0
KWE2 141612Z 21009KT 21/12 A3004 RMK A01 T02090116  RH  055%=      5-min Rain = 0
KWE2 141613Z 20011KT 21/12 A3004 RMK A01 T02100116  RH  055%=      5-min Rain = 0
KWE2 141614Z 20011KT 21/12 A3004 RMK A01 T02100116  RH  055%=      5-min Rain = 0
KWE2 141615Z 21010KT 21/12 A3004 RMK A01 T02100116  RH  055%=      5-min Rain = 0
KWE2 141616Z 21011KT 21/12 A3004 RMK A01 T02100117  RH  055%=      5-min Rain = 0
KWE2 141617Z 21012KT 21/12 A3004 RMK A01 T02100116  RH  055%=      5-min Rain = 0
KWE2 141618Z 22010KT 21/12 A3004 RMK A01 T02100117  RH  055%=      5-min Rain = 0
KWE2 141619Z 23011KT 21/12 A3004 RMK A01 T02110117  RH  055%=      5-min Rain = 0
KWE2 141620Z 22011KT 21/12 A3004 RMK A01 T02110118  RH  055%=      5-min Rain = 0
KWE2 141621Z 23010KT 21/12 A3004 RMK A01 T02110118  RH  055%=      5-min Rain = 0
KWE2 141622Z 22010KT 21/12 A3004 RMK A01 T02120119  RH  055%=      5-min Rain = 0
KWE2 141623Z 22013KT 21/12 A3004 RMK A01 T02120118  RH  055%=      5-min Rain = 0
KWE2 141624Z 22011KT 21/12 A3004 RMK A01 T02120119  RH  055%=      5-min Rain = 0
KWE2 141625Z 21010KT 21/12 A3004 RMK A01 T02120119  RH  055%=      5-min Rain = 0
KWE2 141626Z 22011KT 21/12 A3004 RMK A01 T02130120  RH  055%=      5-min Rain = 0
KWE2 141627Z 21010KT 21/12 A3004 RMK A01 T02140120  RH  055%=      5-min Rain = 0
KWE2 141628Z 22009KT 21/12 A3004 RMK A01 T02140121  RH  055%=      5-min Rain = 0
KWE2 141629Z 22011KT 22/12 A3004 RMK A01 T02150120  RH  055%=      5-min Rain = 0
KWE2 141630Z 23011KT 22/12 A3004 RMK A01 T02150120  RH  055%=      5-min Rain = 0
KWE2 141631Z 23010KT 21/12 A3004 RMK A01 T02140121  RH  055%=      5-min Rain = 0
KWE2 141632Z 23013KT 22/12 A3004 RMK A01 T02150122  RH  055%=      5-min Rain = 0
KWE2 141633Z 23012KT 22/12 A3004 RMK A01 T02150122  RH  055%=      5-min Rain = 0
KWE2 141634Z 23013KT 21/12 A3004 RMK A01 T02140122  RH  056%=      5-min Rain = 0
KWE2 141635Z 23013KT 21/12 A3004 RMK A01 T02140122  RH  056%=      5-min Rain = 0
KWE2 141636Z 23011KT 21/12 A3004 RMK A01 T02130123  RH  056%=      5-min Rain = 0
KWE2 141637Z 23013KT 21/12 A3004 RMK A01 T02140123  RH  056%=      5-min Rain = 0
KWE2 141638Z 22013KT 21/12 A3004 RMK A01 T02140123  RH  056%=      5-min Rain = 0
KWE2 141639Z 23011KT 21/12 A3004 RMK A01 T02140124  RH  056%=      5-min Rain = 0
KWE2 141640Z 23013KT 21/12 A3004 RMK A01 T02140124  RH  056%=      5-min Rain = 0
KWE2 141641Z 23012KT 21/12 A3004 RMK A01 T02140123  RH  056%=      5-min Rain = 0
KWE2 141642Z 23013KT 21/12 A3004 RMK A01 T02130124  RH  057%=      5-min Rain = 0
KWE2 141643Z 23011KT 21/12 A3004 RMK A01 T02130124  RH  057%=      5-min Rain = 0
KWE2 141644Z 23011KT 21/12 A3004 RMK A01 T02130124  RH  057%=      5-min Rain = 0
KWE2 141645Z 24010KT 21/12 A3004 RMK A01 T02130124  RH  057%=      5-min Rain = 0
KWE2 141646Z 24009KT 21/12 A3004 RMK A01 T02140124  RH  057%=      5-min Rain = 0
KWE2 141647Z 23010KT 22/13 A3004 RMK A01 T02150125  RH  057%=      5-min Rain = 0
KWE2 141648Z 23010KT 22/13 A3004 RMK A01 T02150125  RH  056%=      5-min Rain = 0
KWE2 141649Z 23010KT 22/13 A3004 RMK A01 T02150126  RH  057%=      5-min Rain = 0
KWE2 141650Z 23013KT 22/13 A3004 RMK A01 T02170126  RH  056%=      5-min Rain = 0
KWE2 141651Z 23011KT 22/13 A3004 RMK A01 T02170126  RH  056%=      5-min Rain = 0
KWE2 141652Z 24008KT 22/13 A3004 RMK A01 T02180127  RH  056%=      5-min Rain = 0
KWE2 141653Z 24011KT 22/13 A3004 RMK A01 T02200128  RH  056%=      5-min Rain = 0
KWE2 141654Z 24010KT 22/13 A3004 RMK A01 T02200128  RH  056%=      5-min Rain = 0
KWE2 141655Z 24009KT 22/13 A3004 RMK A01 T02210128  RH  056%=      5-min Rain = 0
KWE2 141656Z 24010KT 22/13 A3004 RMK A01 T02220129  RH  056%=      5-min Rain = 0
KWE2 141657Z 24009KT 22/13 A3004 RMK A01 T02220128  RH  055%=      5-min Rain = 0
KWE2 141658Z 23010KT 22/13 A3004 RMK A01 T02220130  RH  056%=      5-min Rain = 0
KWE2 141659Z 23011KT 22/13 A3004 RMK A01 T02220129  RH  055%=      5-min Rain = 0
KWE2 141700Z 23012KT 22/13 A3003 RMK A01 T02220129  RH  056%=      5-min Rain = 0
KWE2 141701Z 23012KT 22/13 A3003 RMK A01 T02220129  RH  056%=      5-min Rain = 0
KWE2 141702Z 23012KT 22/13 A3003 RMK A01 T02210129  RH  056%=      5-min Rain = 0
KWE2 141703Z 23010KT 22/13 A3003 RMK A01 T02210129  RH  056%=      5-min Rain = 0
KWE2 141704Z 23011KT 22/13 A3003 RMK A01 T02210129  RH  056%=      5-min Rain = 0
KWE2 141705Z 22010KT 22/13 A3003 RMK A01 T02220130  RH  056%=      5-min Rain = 0
KWE2 141706Z 23012KT 22/13 A3003 RMK A01 T02240131  RH  055%=      5-min Rain = 0
KWE2 141707Z 24011KT 23/13 A3003 RMK A01 T02250130  RH  055%=      5-min Rain = 0
KWE2 141708Z 23012KT 23/13 A3003 RMK A01 T02250130  RH  055%=      5-min Rain = 0
KWE2 141709Z 23012KT 23/13 A3003 RMK A01 T02250130  RH  055%=      5-min Rain = 0
KWE2 141710Z 23012KT 23/13 A3003 RMK A01 T02250130  RH  055%=      5-min Rain = 0
KWE2 141711Z 24009KT 23/13 A3003 RMK A01 T02250130  RH  055%=      5-min Rain = 0
KWE2 141712Z 23012KT 23/13 A3003 RMK A01 T02260130  RH  055%=      5-min Rain = 0
KWE2 141713Z 23011KT 23/13 A3003 RMK A01 T02260130  RH  055%=      5-min Rain = 0
KWE2 141714Z 23010KT 23/13 A3003 RMK A01 T02270130  RH  054%=      5-min Rain = 0
KWE2 141715Z 24009KT 23/13 A3003 RMK A01 T02270130  RH  054%=      5-min Rain = 0
KWE2 141716Z 25009KT 23/13 A3003 RMK A01 T02270130  RH  054%=      5-min Rain = 0
KWE2 141717Z 24008KT 23/13 A3003 RMK A01 T02280132  RH  055%=      5-min Rain = 0
KWE2 141718Z 22010KT 23/13 A3003 RMK A01 T02300133  RH  054%=      5-min Rain = 0
KWE2 141719Z 22012KT 23/13 A3003 RMK A01 T02300132  RH  054%=      5-min Rain = 0
KWE2 141720Z 23010KT 23/13 A3003 RMK A01 T02280132  RH  054%=      5-min Rain = 0
KWE2 141721Z 24008KT 23/13 A3003 RMK A01 T02280132  RH  055%=      5-min Rain = 0
KWE2 141722Z 22010KT 23/13 A3003 RMK A01 T02300133  RH  054%=      5-min Rain = 0
KWE2 141723Z 22010KT 23/13 A3003 RMK A01 T02340133  RH  053%=      5-min Rain = 0
KWE2 141724Z 23010KT 24/13 A3003 RMK A01 T02360133  RH  052%=      5-min Rain = 0
KWE2 141725Z 24010KT 24/13 A3003 RMK A01 T02370133  RH  052%=      5-min Rain = 0
KWE2 141726Z 23009KT 24/13 A3003 RMK A01 T02370133  RH  052%=      5-min Rain = 0
KWE2 141727Z 23010KT 24/13 A3002 RMK A01 T02380131  RH  051%=      5-min Rain = 0
KWE2 141728Z 24010KT 24/13 A3002 RMK A01 T02380132  RH  051%=      5-min Rain = 0
KWE2 141729Z 22010KT 24/13 A3002 RMK A01 T02380131  RH  051%=      5-min Rain = 0
KWE2 141730Z 22009KT 24/13 A3002 RMK A01 T02370131  RH  052%=      5-min Rain = 0
KWE2 141731Z 23011KT 24/13 A3002 RMK A01 T02400132  RH  051%=      5-min Rain = 0
KWE2 141732Z 23009KT 24/13 A3002 RMK A01 T02410131  RH  050%=      5-min Rain = 0
KWE2 141733Z 23012KT 24/13 A3002 RMK A01 T02400130  RH  050%=      5-min Rain = 0
KWE2 141734Z 22008KT 24/13 A3002 RMK A01 T02380128  RH  050%=      5-min Rain = 0
KWE2 141735Z 23013KT 24/13 A3002 RMK A01 T02380128  RH  050%=      5-min Rain = 0
KWE2 141736Z 23011KT 24/13 A3002 RMK A01 T02400128  RH  050%=      5-min Rain = 0
KWE2 141737Z 22010KT 24/13 A3002 RMK A01 T02400129  RH  050%=      5-min Rain = 0
KWE2 141738Z 22011KT 24/13 A3002 RMK A01 T02410129  RH  050%=      5-min Rain = 0
KWE2 141739Z 23008KT 24/13 A3002 RMK A01 T02440132  RH  050%=      5-min Rain = 0
KWE2 141740Z 24010KT 25/13 A3002 RMK A01 T02490131  RH  048%=      5-min Rain = 0
KWE2 141741Z 22011KT 25/13 A3002 RMK A01 T02480131  RH  048%=      5-min Rain = 0
KWE2 141742Z 22011KT 25/13 A3002 RMK A01 T02470131  RH  048%=      5-min Rain = 0
KWE2 141743Z 21009KT 25/13 A3002 RMK A01 T02460129  RH  048%=      5-min Rain = 0
KWE2 141744Z 23009KT 25/13 A3002 RMK A01 T02460130  RH  048%=      5-min Rain = 0
KWE2 141745Z 23007KT 25/13 A3002 RMK A01 T02490131  RH  048%=      5-min Rain = 0
KWE2 141746Z 22011KT 25/13 A3001 RMK A01 T02520133  RH  048%=      5-min Rain = 0
KWE2 141747Z 23013KT 25/13 A3001 RMK A01 T02540132  RH  047%=      5-min Rain = 0
KWE2 141748Z 24010KT 25/13 A3001 RMK A01 T02530131  RH  047%=      5-min Rain = 0
KWE2 141749Z 23010KT 25/13 A3001 RMK A01 T02520130  RH  047%=      5-min Rain = 0
KWE2 141750Z 25008KT 25/13 A3001 RMK A01 T02500129  RH  047%=      5-min Rain = 0
KWE2 141751Z 24011KT 25/13 A3001 RMK A01 T02480131  RH  048%=      5-min Rain = 0
KWE2 141752Z 23010KT 25/13 A3001 RMK A01 T02500131  RH  047%=      5-min Rain = 0
KWE2 141753Z 21009KT 25/13 A3001 RMK A01 T02500130  RH  047%=      5-min Rain = 0
KWE2 141754Z 21009KT 25/13 A3001 RMK A01 T02480131  RH  048%=      5-min Rain = 0
KWE2 141755Z 23009KT 25/13 A3001 RMK A01 T02500132  RH  048%=      5-min Rain = 0
KWE2 141756Z 21012KT 25/13 A3001 RMK A01 T02510132  RH  048%=      5-min Rain = 0
KWE2 141757Z 23010KT 25/13 A3001 RMK A01 T02480132  RH  048%=      5-min Rain = 0
KWE2 141758Z 23012KT 25/14 A3001 RMK A01 T02490135  RH  049%=      5-min Rain = 0
KWE2 141759Z 23010KT 25/14 A3001 RMK A01 T02500135  RH  049%=      5-min Rain = 0
KWE2 141800Z 23012KT 25/14 A3001 RMK A01 T02490136  RH  049%=      5-min Rain = 0
KWE2 141801Z 21010KT 25/14 A3001 RMK A01 T02510136  RH  049%=      5-min Rain = 0
KWE2 141802Z 21012KT 25/14 A3001 RMK A01 T02520137  RH  049%=      5-min Rain = 0
KWE2 141803Z 24009KT 25/14 A3001 RMK A01 T02510136  RH  049%=      5-min Rain = 0
KWE2 141804Z 24011KT 25/13 A3001 RMK A01 T02530134  RH  048%=      5-min Rain = 0
KWE2 141805Z 25009KT 26/13 A3001 RMK A01 T02570134  RH  046%=      5-min Rain = 0
KWE2 141806Z 23013KT 26/14 A30 RMK A01 T02590137  RH  047%=      5-min Rain = 0
KWE2 141807Z 23012KT 26/14 A30 RMK A01 T02610137  RH  046%=      5-min Rain = 0
KWE2 141808Z 23012KT 26/14 A30 RMK A01 T02590137  RH  047%=      5-min Rain = 0
KWE2 141809Z 22010KT 26/14 A30 RMK A01 T02590138  RH  047%=      5-min Rain = 0
KWE2 141810Z 23010KT 26/14 A30 RMK A01 T02570137  RH  048%=      5-min Rain = 0
KWE2 141811Z 24013KT 26/14 A30 RMK A01 T02560138  RH  048%=      5-min Rain = 0
KWE2 141812Z 24013KT 26/14 A30 RMK A01 T02580137  RH  047%=      5-min Rain = 0
KWE2 141813Z 24010G15KT 26/14 A30 RMK A01 T02590137  RH  047%=      5-min Rain = 0
KWE2 141814Z 24009KT 26/14 A30 RMK A01 T02580138  RH  047%=      5-min Rain = 0
KWE2 141815Z 23010KT 26/14 A30 RMK A01 T02600140  RH  047%=      5-min Rain = 0
KWE2 141816Z 25012KT 27/14 A30 RMK A01 T02650139  RH  046%=      5-min Rain = 0
KWE2 141817Z 26011KT 26/14 A30 RMK A01 T02630138  RH  046%=      5-min Rain = 0
KWE2 141818Z 25011KT 26/14 A2999 RMK A01 T02600137  RH  046%=      5-min Rain = 0
KWE2 141819Z 24012KT 26/14 A2999 RMK A01 T02580136  RH  047%=      5-min Rain = 0
KWE2 141820Z 25014KT 26/14 A2999 RMK A01 T02580137  RH  047%=      5-min Rain = 0
KWE2 141821Z 25010KT 26/14 A2999 RMK A01 T02590137  RH  047%=      5-min Rain = 0
KWE2 141822Z 23012KT 26/14 A2999 RMK A01 T02610138  RH  047%=      5-min Rain = 0
KWE2 141823Z 22011KT 26/14 A2999 RMK A01 T02620137  RH  046%=      5-min Rain = 0
KWE2 141824Z 22012KT 26/14 A2999 RMK A01 T02620137  RH  046%=      5-min Rain = 0
KWE2 141825Z 23014KT 26/14 A2999 RMK A01 T02630135  RH  045%=      5-min Rain = 0
KWE2 141826Z 22013KT 26/14 A2999 RMK A01 T02620135  RH  045%=      5-min Rain = 0
KWE2 141827Z 21010KT 26/14 A2999 RMK A01 T02610135  RH  046%=      5-min Rain = 0
KWE2 141828Z 22012KT 26/14 A2999 RMK A01 T02600135  RH  046%=      5-min Rain = 0
KWE2 141829Z 22014KT 26/14 A2999 RMK A01 T02600136  RH  046%=      5-min Rain = 0
KWE2 141830Z 24013KT 26/14 A2999 RMK A01 T02610136  RH  046%=      5-min Rain = 0
KWE2 141831Z 24012KT 26/14 A2999 RMK A01 T02620136  RH  046%=      5-min Rain = 0
KWE2 141832Z 23011KT 26/14 A2998 RMK A01 T02620137  RH  046%=      5-min Rain = 0
KWE2 141833Z 22009KT 26/14 A2998 RMK A01 T02600137  RH  047%=      5-min Rain = 0
KWE2 141834Z 22009KT 26/14 A2998 RMK A01 T02600138  RH  047%=      5-min Rain = 0
KWE2 141835Z 21013KT 26/14 A2998 RMK A01 T02620137  RH  046%=      5-min Rain = 0
KWE2 141836Z 21011KT 26/14 A2998 RMK A01 T02630136  RH  046%=      5-min Rain = 0
KWE2 141837Z 23010KT 26/14 A2998 RMK A01 T02610135  RH  046%=      5-min Rain = 0
KWE2 141838Z 23012KT 26/14 A2998 RMK A01 T02630136  RH  046%=      5-min Rain = 0
KWE2 141839Z 22013KT 27/14 A2998 RMK A01 T02650136  RH  045%=      5-min Rain = 0
KWE2 141840Z 22012KT 27/14 A2998 RMK A01 T02650135  RH  045%=      5-min Rain = 0
KWE2 141841Z 23009KT 26/13 A2998 RMK A01 T02640133  RH  045%=      5-min Rain = 0
KWE2 141842Z 23009KT 26/13 A2998 RMK A01 T02620132  RH  045%=      5-min Rain = 0
KWE2 141843Z 23011KT 26/13 A2998 RMK A01 T02620134  RH  045%=      5-min Rain = 0
KWE2 141844Z 21008G13KT 26/14 A2998 RMK A01 T02640136  RH  045%=      5-min Rain = 0
KWE2 141845Z 23008KT 27/14 A2998 RMK A01 T02680137  RH  045%=      5-min Rain = 0
KWE2 141846Z 22012G17KT 27/14 A2998 RMK A01 T02670138  RH  045%=      5-min Rain = 0
KWE2 141847Z 23014KT 27/14 A2998 RMK A01 T02670137  RH  045%=      5-min Rain = 0
KWE2 141848Z 24013KT 27/14 A2998 RMK A01 T02660136  RH  045%=      5-min Rain = 0
KWE2 141849Z 24012KT 27/14 A2998 RMK A01 T02650136  RH  045%=      5-min Rain = 0
KWE2 141850Z 25012KT 27/14 A2998 RMK A01 T02660137  RH  045%=      5-min Rain = 0
KWE2 141851Z 21013G18KT 27/14 A2998 RMK A01 T02650137  RH  045%=      5-min Rain = 0
KWE2 141852Z 22016KT 27/14 A2998 RMK A01 T02660136  RH  045%=      5-min Rain = 0
KWE2 141853Z 24013KT 27/14 A2998 RMK A01 T02690137  RH  044%=      5-min Rain = 0
KWE2 141854Z 23014KT 27/14 A2998 RMK A01 T02690138  RH  044%=      5-min Rain = 0
KWE2 141855Z 24013KT 27/14 A2998 RMK A01 T02710137  RH  044%=      5-min Rain = 0
KWE2 141856Z 22014KT 27/14 A2998 RMK A01 T02720136  RH  043%=      5-min Rain = 0
KWE2 141857Z 23012KT 27/14 A2998 RMK A01 T02700135  RH  043%=      5-min Rain = 0
KWE2 141858Z 21012KT 27/14 A2998 RMK A01 T02690135  RH  044%=      5-min Rain = 0
KWE2 141859Z 21011KT 27/13 A2998 RMK A01 T02680133  RH  043%=      5-min Rain = 0
KWE2 141900Z 22013G18KT 27/14 A2998 RMK A01 T02680135  RH  044%=      5-min Rain = 0
KWE2 141901Z 23012KT 27/13 A2998 RMK A01 T02680134  RH  044%=      5-min Rain = 0
KWE2 141902Z 23012KT 27/13 A2998 RMK A01 T02680132  RH  043%=      5-min Rain = 0
KWE2 141903Z 22010KT 27/13 A2998 RMK A01 T02690132  RH  043%=      5-min Rain = 0
KWE2 141904Z 23011KT 27/13 A2997 RMK A01 T02690134  RH  043%=      5-min Rain = 0
KWE2 141905Z 23015KT 27/13 A2997 RMK A01 T02710133  RH  043%=      5-min Rain = 0
KWE2 141906Z 22013KT 27/13 A2997 RMK A01 T02710132  RH  042%=      5-min Rain = 0
KWE2 141907Z 21010KT 27/13 A2997 RMK A01 T02700130  RH  042%=      5-min Rain = 0
KWE2 141908Z 21012G17KT 27/13 A2997 RMK A01 T02700130  RH  042%=      5-min Rain = 0
KWE2 141909Z 21014KT 27/13 A2997 RMK A01 T02710132  RH  042%=      5-min Rain = 0
KWE2 141910Z 22015KT 27/13 A2997 RMK A01 T02710132  RH  042%=      5-min Rain = 0
KWE2 141911Z 23012KT 27/13 A2997 RMK A01 T02710133  RH  042%=      5-min Rain = 0
KWE2 141912Z 22012KT 27/13 A2997 RMK A01 T02700132  RH  042%=      5-min Rain = 0
KWE2 141913Z 23009KT 27/13 A2997 RMK A01 T02700131  RH  042%=      5-min Rain = 0
KWE2 141914Z 22012KT 27/13 A2997 RMK A01 T02690132  RH  043%=      5-min Rain = 0
KWE2 141915Z 23013KT 27/13 A2997 RMK A01 T02710128  RH  041%=      5-min Rain = 0
KWE2 141916Z 23013KT 27/13 A2997 RMK A01 T02730129  RH  041%=      5-min Rain = 0
KWE2 141917Z 23011KT 27/13 A2997 RMK A01 T02710132  RH  042%=      5-min Rain = 0
KWE2 141918Z 24009KT 27/13 A2997 RMK A01 T02700134  RH  043%=      5-min Rain = 0
KWE2 141919Z 23011KT 27/13 A2997 RMK A01 T02710134  RH  043%=      5-min Rain = 0
KWE2 141920Z 22010KT 27/13 A2996 RMK A01 T02700134  RH  043%=      5-min Rain = 0
KWE2 141921Z 22012KT 27/14 A2996 RMK A01 T02700135  RH  043%=      5-min Rain = 0
KWE2 141922Z 22008KT 27/13 A2996 RMK A01 T02690134  RH  043%=      5-min Rain = 0
KWE2 141923Z 25010KT 27/13 A2996 RMK A01 T02690134  RH  043%=      5-min Rain = 0
KWE2 141924Z 24013KT 27/13 A2996 RMK A01 T02720131  RH  042%=      5-min Rain = 0
KWE2 141925Z 24011KT 27/13 A2996 RMK A01 T02730131  RH  042%=      5-min Rain = 0
KWE2 141926Z 25011KT 27/13 A2996 RMK A01 T02720133  RH  042%=      5-min Rain = 0
KWE2 141927Z 22010KT 27/13 A2996 RMK A01 T02740132  RH  042%=      5-min Rain = 0
KWE2 141928Z 20012KT 28/13 A2996 RMK A01 T02750134  RH  042%=      5-min Rain = 0
KWE2 141929Z 22011KT 27/13 A2996 RMK A01 T02720134  RH  042%=      5-min Rain = 0
KWE2 141930Z 21012KT 27/14 A2996 RMK A01 T02710135  RH  043%=      5-min Rain = 0
KWE2 141931Z 20014KT 27/13 A2996 RMK A01 T02720134  RH  042%=      5-min Rain = 0
KWE2 141932Z 21014KT 27/13 A2996 RMK A01 T02700131  RH  042%=      5-min Rain = 0
KWE2 141933Z 20011KT 27/13 A2996 RMK A01 T02700131  RH  042%=      5-min Rain = 0
KWE2 141934Z 21010G15KT 27/13 A2996 RMK A01 T02690131  RH  043%=      5-min Rain = 0
KWE2 141935Z 22011KT 27/13 A2996 RMK A01 T02700132  RH  042%=      5-min Rain = 0
KWE2 141936Z 22008KT 27/13 A2996 RMK A01 T02700131  RH  042%=      5-min Rain = 0
KWE2 141937Z 23012KT 27/13 A2996 RMK A01 T02710133  RH  043%=      5-min Rain = 0
KWE2 141938Z 24011KT 27/14 A2995 RMK A01 T02720135  RH  043%=      5-min Rain = 0
KWE2 141939Z 24008KT 27/13 A2995 RMK A01 T02720134  RH  042%=      5-min Rain = 0
KWE2 141940Z 24010KT 27/13 A2995 RMK A01 T02690134  RH  043%=      5-min Rain = 0
KWE2 141941Z 23010KT 27/14 A2995 RMK A01 T02680136  RH  044%=      5-min Rain = 0
KWE2 141942Z 21010G15KT 27/14 A2995 RMK A01 T02690136  RH  044%=      5-min Rain = 0
KWE2 141943Z 21014KT 27/14 A2995 RMK A01 T02710136  RH  043%=      5-min Rain = 0
KWE2 141944Z 22011KT 27/14 A2995 RMK A01 T02710137  RH  043%=      5-min Rain = 0
KWE2 141945Z 22010KT 27/14 A2995 RMK A01 T02700137  RH  044%=      5-min Rain = 0
KWE2 141946Z 20011KT 27/14 A2995 RMK A01 T02710137  RH  044%=      5-min Rain = 0
KWE2 141947Z 19011KT 27/14 A2995 RMK A01 T02710137  RH  044%=      5-min Rain = 0
KWE2 141948Z 18009KT 27/14 A2995 RMK A01 T02680136  RH  044%=      5-min Rain = 0
KWE2 141949Z 18008KT 27/14 A2995 RMK A01 T02670136  RH  045%=      5-min Rain = 0
KWE2 141950Z 20010KT 27/14 A2995 RMK A01 T02670137  RH  045%=      5-min Rain = 0
KWE2 141951Z 20010KT 27/14 A2995 RMK A01 T02680137  RH  044%=      5-min Rain = 0
KWE2 141952Z 22010KT 27/14 A2995 RMK A01 T02700137  RH  044%=      5-min Rain = 0
KWE2 141953Z 23010KT 27/14 A2995 RMK A01 T02720136  RH  043%=      5-min Rain = 0
KWE2 141954Z 23007KT 27/14 A2995 RMK A01 T02730137  RH  043%=      5-min Rain = 0
KWE2 141955Z 23010KT 28/14 A2995 RMK A01 T02750137  RH  043%=      5-min Rain = 0
KWE2 141956Z 23014KT 28/14 A2995 RMK A01 T02780137  RH  042%=      5-min Rain = 0
KWE2 141957Z 23012KT 28/14 A2995 RMK A01 T02790136  RH  041%=      5-min Rain = 0
KWE2 141958Z 22009KT 28/14 A2994 RMK A01 T02790135  RH  041%=      5-min Rain = 0
KWE2 141959Z 23012KT 28/14 A2994 RMK A01 T02800136  RH  041%=      5-min Rain = 0
KWE2 142000Z 24009KT 28/14 A2994 RMK A01 T02780136  RH  042%=      5-min Rain = 0
KWE2 142001Z 21009KT 28/14 A2994 RMK A01 T02760137  RH  042%=      5-min Rain = 0
KWE2 142002Z 20011KT 28/14 A2994 RMK A01 T02760138  RH  043%=      5-min Rain = 0
KWE2 142003Z 20011KT 28/14 A2994 RMK A01 T02780138  RH  042%=      5-min Rain = 0
KWE2 142004Z 19011KT 28/14 A2994 RMK A01 T02770138  RH  042%=      5-min Rain = 0
KWE2 142005Z 20008KT 27/14 A2994 RMK A01 T02740137  RH  043%=      5-min Rain = 0
KWE2 142006Z 20009KT 27/14 A2994 RMK A01 T02730139  RH  044%=      5-min Rain = 0
KWE2 142007Z 20009KT 28/14 A2994 RMK A01 T02750139  RH  043%=      5-min Rain = 0
KWE2 142008Z 21010KT 28/14 A2994 RMK A01 T02750140  RH  043%=      5-min Rain = 0
KWE2 142009Z 22007KT 27/14 A2994 RMK A01 T02730139  RH  044%=      5-min Rain = 0
KWE2 142010Z 23007KT 27/14 A2994 RMK A01 T02710139  RH  044%=      5-min Rain = 0
KWE2 142011Z 23010G15KT 27/14 A2994 RMK A01 T02710140  RH  045%=      5-min Rain = 0
KWE2 142012Z 24012KT 27/14 A2994 RMK A01 T02730140  RH  044%=      5-min Rain = 0
KWE2 142013Z 24011KT 27/14 A2994 RMK A01 T02710140  RH  044%=      5-min Rain = 0
KWE2 142014Z 23012KT 27/14 A2994 RMK A01 T02690140  RH  045%=      5-min Rain = 0
KWE2 142015Z 22008KT 27/14 A2994 RMK A01 T02680140  RH  045%=      5-min Rain = 0
KWE2 142016Z 23006KT 27/14 A2994 RMK A01 T02670139  RH  045%=      5-min Rain = 0
KWE2 142017Z 23006KT 27/14 A2994 RMK A01 T02690140  RH  045%=      5-min Rain = 0
KWE2 142018Z 21006KT 27/14 A2994 RMK A01 T02720141  RH  044%=      5-min Rain = 0
KWE2 142019Z 20009G15KT 27/14 A2993 RMK A01 T02730142  RH  044%=      5-min Rain = 0
KWE2 142020Z 24010KT 28/14 A2993 RMK A01 T02750142  RH  044%=      5-min Rain = 0
KWE2 142021Z 25009KT 28/14 A2994 RMK A01 T02750142  RH  044%=      5-min Rain = 0
KWE2 142022Z 24011KT 28/14 A2993 RMK A01 T02790143  RH  044%=      5-min Rain = 0
KWE2 142023Z 24011KT 28/14 A2993 RMK A01 T02800141  RH  043%=      5-min Rain = 0
KWE2 142024Z 23012KT 28/14 A2993 RMK A01 T02780142  RH  043%=      5-min Rain = 0
KWE2 142025Z 22012KT 28/14 A2993 RMK A01 T02750141  RH  044%=      5-min Rain = 0
KWE2 142026Z 20010KT 27/14 A2993 RMK A01 T02730141  RH  044%=      5-min Rain = 0
KWE2 142027Z 19012KT 27/14 A2993 RMK A01 T02710140  RH  044%=      5-min Rain = 0
KWE2 142028Z 20013KT 27/14 A2993 RMK A01 T02710140  RH  045%=      5-min Rain = 0
KWE2 142029Z 20013KT 27/14 A2993 RMK A01 T02700139  RH  045%=      5-min Rain = 0
KWE2 142030Z 20011KT 27/14 A2993 RMK A01 T02670140  RH  045%=      5-min Rain = 0
KWE2 142031Z 21010KT 27/14 A2993 RMK A01 T02660141  RH  046%=      5-min Rain = 0
KWE2 142032Z 21009KT 27/14 A2993 RMK A01 T02660141  RH  046%=      5-min Rain = 0
KWE2 142033Z 22008KT 27/14 A2993 RMK A01 T02670142  RH  046%=      5-min Rain = 0
KWE2 142034Z 22010KT 27/14 A2993 RMK A01 T02690142  RH  045%=      5-min Rain = 0
KWE2 142035Z 23007KT 27/14 A2993 RMK A01 T02700141  RH  045%=      5-min Rain = 0
KWE2 142036Z 23012KT 27/14 A2993 RMK A01 T02690139  RH  045%=      5-min Rain = 0
KWE2 142037Z 23010KT 27/14 A2993 RMK A01 T02700137  RH  044%=      5-min Rain = 0
KWE2 142038Z 23010KT 27/14 A2993 RMK A01 T02700138  RH  044%=      5-min Rain = 0
KWE2 142039Z 23010KT 27/14 A2993 RMK A01 T02700138  RH  044%=      5-min Rain = 0
KWE2 142040Z 23009KT 27/14 A2993 RMK A01 T02700138  RH  044%=      5-min Rain = 0
KWE2 142041Z 23009KT 27/14 A2993 RMK A01 T02710140  RH  044%=      5-min Rain = 0
KWE2 142042Z 21011KT 27/14 A2993 RMK A01 T02730141  RH  044%=      5-min Rain = 0
KWE2 142043Z 22009KT 27/14 A2993 RMK A01 T02730140  RH  044%=      5-min Rain = 0
KWE2 142044Z 21012KT 27/14 A2993 RMK A01 T02740140  RH  044%=      5-min Rain = 0
KWE2 142045Z 21011KT 28/14 A2993 RMK A01 T02750141  RH  044%=      5-min Rain = 0
KWE2 142046Z 20012KT 28/14 A2993 RMK A01 T02760141  RH  044%=      5-min Rain = 0
KWE2 142047Z 20009KT 28/14 A2993 RMK A01 T02750141  RH  044%=      5-min Rain = 0
KWE2 142048Z 22007KT 28/14 A2993 RMK A01 T02770143  RH  044%=      5-min Rain = 0
KWE2 142049Z 23013KT 28/14 A2993 RMK A01 T02800142  RH  043%=      5-min Rain = 0
KWE2 142050Z 22014KT 28/14 A2993 RMK A01 T02800141  RH  043%=      5-min Rain = 0
KWE2 142051Z 23013KT 28/14 A2993 RMK A01 T02760139  RH  043%=      5-min Rain = 0
KWE2 142052Z 22009KT 27/14 A2993 RMK A01 T02730139  RH  044%=      5-min Rain = 0
KWE2 142053Z 22012KT 27/14 A2993 RMK A01 T02730140  RH  044%=      5-min Rain = 0
KWE2 142054Z 22009KT 27/14 A2993 RMK A01 T02730141  RH  044%=      5-min Rain = 0
KWE2 142055Z 24010KT 27/14 A2993 RMK A01 T02740141  RH  044%=      5-min Rain = 0
KWE2 142056Z 22007KT 27/14 A2993 RMK A01 T02740140  RH  044%=      5-min Rain = 0
KWE2 142057Z 23011KT 27/14 A2993 RMK A01 T02740141  RH  044%=      5-min Rain = 0
KWE2 142058Z 22008KT 28/14 A2993 RMK A01 T02750141  RH  044%=      5-min Rain = 0
KWE2 142059Z 22007KT 27/14 A2993 RMK A01 T02740140  RH  044%=      5-min Rain = 0
KWE2 142100Z 24010KT 27/14 A2993 RMK A01 T02730141  RH  044%=      5-min Rain = 0
KWE2 142101Z 24008KT 27/14 A2993 RMK A01 T02730142  RH  045%=      5-min Rain = 0
KWE2 142102Z 25007G12KT 27/14 A2993 RMK A01 T02720141  RH  045%=      5-min Rain = 0
KWE2 142103Z 23012KT 27/14 A2993 RMK A01 T02730141  RH  044%=      5-min Rain = 0
KWE2 142104Z 24010KT 28/14 A2993 RMK A01 T02750141  RH  044%=      5-min Rain = 0
KWE2 142105Z 24010KT 27/14 A2993 RMK A01 T02740141  RH  044%=      5-min Rain = 0
KWE2 142106Z 22009KT 27/14 A2993 RMK A01 T02740140  RH  044%=      5-min Rain = 0
KWE2 142107Z 22008KT 27/14 A2993 RMK A01 T02720139  RH  044%=      5-min Rain = 0
KWE2 142108Z 23008KT 27/14 A2993 RMK A01 T02730140  RH  044%=      5-min Rain = 0
KWE2 142109Z 23008KT 27/14 A2993 RMK A01 T02740141  RH  044%=      5-min Rain = 0
KWE2 142110Z 25011KT 28/14 A2993 RMK A01 T02750141  RH  044%=      5-min Rain = 0
KWE2 142111Z 25010KT 28/14 A2993 RMK A01 T02760141  RH  044%=      5-min Rain = 0
KWE2 142112Z 26010KT 28/14 A2992 RMK A01 T02770142  RH  044%=      5-min Rain = 0
KWE2 142113Z 23008G13KT 28/14 A2992 RMK A01 T02770143  RH  044%=      5-min Rain = 0
KWE2 142114Z 23009KT 28/14 A2992 RMK A01 T02780142  RH  043%=      5-min Rain = 0
KWE2 142115Z 22006KT 28/14 A2992 RMK A01 T02770143  RH  044%=      5-min Rain = 0
KWE2 142116Z 22007G12KT 28/14 A2992 RMK A01 T02790144  RH  044%=      5-min Rain = 0
KWE2 142117Z 24008KT 28/14 A2992 RMK A01 T02810144  RH  043%=      5-min Rain = 0
KWE2 142118Z 22008KT 28/14 A2992 RMK A01 T02800143  RH  043%=      5-min Rain = 0
KWE2 142119Z 25007KT 28/14 A2992 RMK A01 T02790142  RH  043%=      5-min Rain = 0
KWE2 142120Z 24009KT 28/14 A2992 RMK A01 T02810144  RH  043%=      5-min Rain = 0
KWE2 142121Z 23008KT 28/14 A2992 RMK A01 T02810143  RH  043%=      5-min Rain = 0
KWE2 142122Z 24005KT 28/14 A2992 RMK A01 T02780142  RH  043%=      5-min Rain = 0
KWE2 142123Z 25006KT 28/14 A2992 RMK A01 T02770143  RH  044%=      5-min Rain = 0
KWE2 142124Z 23005KT 28/14 A2992 RMK A01 T02770143  RH  044%=      5-min Rain = 0
KWE2 142125Z 24005KT 28/14 A2992 RMK A01 T02770144  RH  044%=      5-min Rain = 0
KWE2 142126Z 23004KT 28/14 A2992 RMK A01 T02770143  RH  044%=      5-min Rain = 0
KWE2 142127Z 25007KT 28/14 A2992 RMK A01 T02770143  RH  044%=      5-min Rain = 0
KWE2 142128Z 22006KT 28/14 A2992 RMK A01 T02780144  RH  044%=      5-min Rain = 0
KWE2 142129Z 25007KT 28/14 A2992 RMK A01 T02800144  RH  043%=      5-min Rain = 0
KWE2 142130Z 26007KT 28/14 A2992 RMK A01 T02810143  RH  043%=      5-min Rain = 0
KWE2 142131Z 26009KT 28/14 A2992 RMK A01 T02790142  RH  043%=      5-min Rain = 0
KWE2 142132Z 23007KT 28/14 A2992 RMK A01 T02790143  RH  043%=      5-min Rain = 0
KWE2 142133Z 25004KT 28/14 A2992 RMK A01 T02790142  RH  043%=      5-min Rain = 0
KWE2 142134Z 26003KT 28/14 A2992 RMK A01 T02770141  RH  043%=      5-min Rain = 0
KWE2 142135Z 27004KT 28/14 A2992 RMK A01 T02780143  RH  044%=      5-min Rain = 0
KWE2 142136Z 23005KT 28/14 A2992 RMK A01 T02820143  RH  043%=      5-min Rain = 0
KWE2 142137Z 23009KT 28/14 A2992 RMK A01 T02840143  RH  042%=      5-min Rain = 0
KWE2 142138Z 21009KT 29/14 A2992 RMK A01 T02850141  RH  041%=      5-min Rain = 0
KWE2 142139Z 22010G15KT 28/14 A2992 RMK A01 T02840141  RH  042%=      5-min Rain = 0
KWE2 142140Z 24012KT 28/14 A2992 RMK A01 T02840141  RH  041%=      5-min Rain = 0
KWE2 142141Z 24010KT 28/14 A2992 RMK A01 T02830140  RH  042%=      5-min Rain = 0
KWE2 142142Z 22009KT 28/14 A2992 RMK A01 T02820140  RH  042%=      5-min Rain = 0
KWE2 142143Z 22010KT 28/14 A2992 RMK A01 T02820141  RH  042%=      5-min Rain = 0
KWE2 142144Z 22013KT 28/14 A2992 RMK A01 T02810140  RH  042%=      5-min Rain = 0
KWE2 142145Z 23013KT 28/14 A2992 RMK A01 T02800139  RH  042%=      5-min Rain = 0
KWE2 142146Z 23012KT 28/14 A2992 RMK A01 T02780138  RH  042%=      5-min Rain = 0
KWE2 142147Z 23013KT 28/14 A2992 RMK A01 T02770138  RH  042%=      5-min Rain = 0
KWE2 142148Z 23011KT 28/14 A2992 RMK A01 T02760139  RH  043%=      5-min Rain = 0
KWE2 142149Z 23011KT 28/14 A2992 RMK A01 T02750139  RH  043%=      5-min Rain = 0
KWE2 142150Z 22010KT 27/14 A2992 RMK A01 T02730139  RH  044%=      5-min Rain = 0
KWE2 142151Z 22010KT 27/14 A2992 RMK A01 T02730139  RH  044%=      5-min Rain = 0
KWE2 142152Z 22008KT 27/14 A2992 RMK A01 T02740140  RH  044%=      5-min Rain = 0
KWE2 142153Z 24007KT 27/14 A2992 RMK A01 T02730140  RH  044%=      5-min Rain = 0
KWE2 142154Z 23009KT 27/14 A2992 RMK A01 T02730140  RH  044%=      5-min Rain = 0
KWE2 142155Z 21009KT 27/14 A2992 RMK A01 T02740140  RH  044%=      5-min Rain = 0
KWE2 142156Z 20009KT 28/14 A2992 RMK A01 T02780142  RH  043%=      5-min Rain = 0
KWE2 142157Z 20009KT 28/14 A2992 RMK A01 T02810142  RH  042%=      5-min Rain = 0
KWE2 142158Z 19010KT 28/14 A2992 RMK A01 T02810142  RH  043%=      5-min Rain = 0
KWE2 142159Z 20010KT 28/14 A2992 RMK A01 T02800141  RH  043%=      5-min Rain = 0
KWE2 142200Z 21011KT 28/14 A2992 RMK A01 T02800140  RH  042%=      5-min Rain = 0
KWE2 142201Z 21012KT 28/14 A2992 RMK A01 T02780139  RH  042%=      5-min Rain = 0
KWE2 142202Z 20010KT 28/14 A2992 RMK A01 T02780139  RH  042%=      5-min Rain = 0
KWE2 142203Z 21010G15KT 28/14 A2992 RMK A01 T02790140  RH  042%=      5-min Rain = 0
KWE2 142204Z 21014KT 28/14 A2992 RMK A01 T02830142  RH  042%=      5-min Rain = 0
KWE2 142205Z 21011KT 28/14 A2992 RMK A01 T02820142  RH  042%=      5-min Rain = 0
KWE2 142206Z 21011KT 28/14 A2992 RMK A01 T02810142  RH  043%=      5-min Rain = 0
KWE2 142207Z 20008KT 28/14 A2992 RMK A01 T02820142  RH  042%=      5-min Rain = 0
KWE2 142208Z 20014KT 28/14 A2992 RMK A01 T02800142  RH  043%=      5-min Rain = 0
KWE2 142209Z 20016KT 28/14 A2992 RMK A01 T02790143  RH  043%=      5-min Rain = 0
KWE2 142210Z 18014KT 28/14 A2992 RMK A01 T02790143  RH  043%=      5-min Rain = 0
KWE2 142211Z 19012KT 28/14 A2992 RMK A01 T02780143  RH  044%=      5-min Rain = 0
KWE2 142212Z 21014KT 28/14 A2992 RMK A01 T02770143  RH  044%=      5-min Rain = 0
KWE2 142213Z 21013KT 27/14 A2992 RMK A01 T02740142  RH  044%=      5-min Rain = 0
KWE2 142214Z 21013KT 27/14 A2992 RMK A01 T02720142  RH  045%=      5-min Rain = 0
KWE2 142215Z 21011KT 27/14 A2992 RMK A01 T02710142  RH  045%=      5-min Rain = 0
KWE2 142216Z 21010KT 27/14 A2992 RMK A01 T02700142  RH  045%=      5-min Rain = 0
KWE2 142217Z 20012KT 27/14 A2992 RMK A01 T02720142  RH  045%=      5-min Rain = 0
KWE2 142218Z 20012KT 27/14 A2992 RMK A01 T02730142  RH  045%=      5-min Rain = 0
KWE2 142219Z 20011KT 27/14 A2992 RMK A01 T02720142  RH  045%=      5-min Rain = 0
KWE2 142220Z 20009KT 27/14 A2992 RMK A01 T02720142  RH  045%=      5-min Rain = 0
KWE2 142221Z 19008KT 27/14 A2992 RMK A01 T02720143  RH  045%=      5-min Rain = 0
KWE2 142222Z 20007KT 27/14 A2992 RMK A01 T02720143  RH  045%=      5-min Rain = 0
KWE2 142223Z 19008KT 27/14 A2992 RMK A01 T02720142  RH  045%=      5-min Rain = 0
KWE2 142224Z 20007KT 27/14 A2992 RMK A01 T02730143  RH  045%=      5-min Rain = 0
KWE2 142225Z 20009KT 27/14 A2992 RMK A01 T02730143  RH  045%=      5-min Rain = 0
KWE2 142226Z 19006KT 27/14 A2992 RMK A01 T02740143  RH  045%=      5-min Rain = 0
KWE2 142227Z 20006KT 28/14 A2992 RMK A01 T02750143  RH  044%=      5-min Rain = 0
KWE2 142228Z 16009G17KT 28/14 A2992 RMK A01 T02760143  RH  044%=      5-min Rain = 0
KWE2 142229Z 19014KT 28/14 A2992 RMK A01 T02780143  RH  044%=      5-min Rain = 0
KWE2 142230Z 23016KT 28/14 A2992 RMK A01 T02800144  RH  043%=      5-min Rain = 0
KWE2 142231Z 22012KT 28/14 A2992 RMK A01 T02820144  RH  043%=      5-min Rain = 0
KWE2 142232Z 22014KT 28/14 A2992 RMK A01 T02820143  RH  042%=      5-min Rain = 0
KWE2 142233Z 22011KT 28/14 A2992 RMK A01 T02790141  RH  043%=      5-min Rain = 0
KWE2 142234Z 22011KT 28/14 A2992 RMK A01 T02770141  RH  043%=      5-min Rain = 0
KWE2 142235Z 23010KT 28/14 A2992 RMK A01 T02790143  RH  043%=      5-min Rain = 0
KWE2 142236Z 22010KT 28/14 A2992 RMK A01 T02810144  RH  043%=      5-min Rain = 0
KWE2 142237Z 21009KT 28/14 A2992 RMK A01 T02830144  RH  043%=      5-min Rain = 0
KWE2 142238Z 20010KT 28/14 A2992 RMK A01 T02810143  RH  043%=      5-min Rain = 0
KWE2 142239Z 20014KT 28/14 A2992 RMK A01 T02780144  RH  044%=      5-min Rain = 0
KWE2 142240Z 20012KT 27/14 A2992 RMK A01 T02740142  RH  044%=      5-min Rain = 0
KWE2 142241Z 20011KT 27/14 A2992 RMK A01 T02710142  RH  045%=      5-min Rain = 0
KWE2 142242Z 20010KT 27/14 A2992 RMK A01 T02700142  RH  045%=      5-min Rain = 0
KWE2 142243Z 22011KT 27/14 A2992 RMK A01 T02720143  RH  045%=      5-min Rain = 0
KWE2 142244Z 22010KT 27/14 A2992 RMK A01 T02730142  RH  045%=      5-min Rain = 0
KWE2 142245Z 23009KT 27/14 A2992 RMK A01 T02730142  RH  045%=      5-min Rain = 0
KWE2 142246Z 22008KT 27/14 A2992 RMK A01 T02730142  RH  045%=      5-min Rain = 0
KWE2 142247Z 23010KT 27/14 A2992 RMK A01 T02730142  RH  045%=      5-min Rain = 0
KWE2 142248Z 21011KT 27/14 A2992 RMK A01 T02740143  RH  045%=      5-min Rain = 0
KWE2 142249Z 22010KT 27/14 A2992 RMK A01 T02740143  RH  044%=      5-min Rain = 0
KWE2 142250Z 23012KT 28/14 A2992 RMK A01 T02750143  RH  044%=      5-min Rain = 0
KWE2 142251Z 23012KT 28/14 A2992 RMK A01 T02750142  RH  044%=      5-min Rain = 0
KWE2 142252Z 23011KT 28/14 A2992 RMK A01 T02750142  RH  044%=      5-min Rain = 0
KWE2 142253Z 23010KT 27/14 A2992 RMK A01 T02740142  RH  044%=      5-min Rain = 0
KWE2 142254Z 23009KT 27/14 A2992 RMK A01 T02740142  RH  044%=      5-min Rain = 0
KWE2 142255Z 21009KT 27/14 A2992 RMK A01 T02740142  RH  044%=      5-min Rain = 0
KWE2 142256Z 19010KT 27/14 A2992 RMK A01 T02740142  RH  044%=      5-min Rain = 0
KWE2 142257Z 20009KT 27/14 A2992 RMK A01 T02730142  RH  044%=      5-min Rain = 0
KWE2 142258Z 20008KT 27/14 A2992 RMK A01 T02730142  RH  045%=      5-min Rain = 0
KWE2 142259Z 21007KT 27/14 A2992 RMK A01 T02740144  RH  045%=      5-min Rain = 0
KWE2 142300Z 22010KT 28/14 A2992 RMK A01 T02760142  RH  044%=      5-min Rain = 0
KWE2 142301Z 23010KT 28/14 A2992 RMK A01 T02770142  RH  044%=      5-min Rain = 0
KWE2 142302Z 22010KT 28/14 A2992 RMK A01 T02760141  RH  044%=      5-min Rain = 0
KWE2 142303Z 22011KT 28/14 A2992 RMK A01 T02750141  RH  044%=      5-min Rain = 0
KWE2 142304Z 21010KT 28/14 A2992 RMK A01 T02750141  RH  044%=      5-min Rain = 0
KWE2 142305Z 22012KT 28/14 A2992 RMK A01 T02750140  RH  044%=      5-min Rain = 0
KWE2 142306Z 21011KT 27/14 A2992 RMK A01 T02740139  RH  044%=      5-min Rain = 0
KWE2 142307Z 20011KT 27/14 A2992 RMK A01 T02740140  RH  044%=      5-min Rain = 0
KWE2 142308Z 20011KT 27/14 A2992 RMK A01 T02740140  RH  044%=      5-min Rain = 0
KWE2 142309Z 20010KT 27/14 A2992 RMK A01 T02740140  RH  044%=      5-min Rain = 0
KWE2 142310Z 20009KT 27/14 A2992 RMK A01 T02740140  RH  044%=      5-min Rain = 0
KWE2 142311Z 23009KT 28/14 A2992 RMK A01 T02750140  RH  044%=      5-min Rain = 0
KWE2 142312Z 23009KT 28/14 A2992 RMK A01 T02750140  RH  043%=      5-min Rain = 0
KWE2 142313Z 23010KT 27/14 A2992 RMK A01 T02740139  RH  044%=      5-min Rain = 0
KWE2 142314Z 22009KT 27/14 A2992 RMK A01 T02740140  RH  044%=      5-min Rain = 0
KWE2 142315Z 22014KT 27/14 A2992 RMK A01 T02740140  RH  044%=      5-min Rain = 0
KWE2 142316Z 21013KT 27/14 A2992 RMK A01 T02720140  RH  044%=      5-min Rain = 0
KWE2 142317Z 20013KT 27/14 A2992 RMK A01 T02710141  RH  045%=      5-min Rain = 0
KWE2 142318Z 20014KT 27/14 A2992 RMK A01 T02700141  RH  045%=      5-min Rain = 0
KWE2 142319Z 20015KT 27/14 A2992 RMK A01 T02690142  RH  046%=      5-min Rain = 0
KWE2 142320Z 20013KT 27/14 A2992 RMK A01 T02680142  RH  046%=      5-min Rain = 0
KWE2 142321Z 20012KT 27/14 A2992 RMK A01 T02670143  RH  046%=      5-min Rain = 0
KWE2 142322Z 20009KT 27/14 A2992 RMK A01 T02670143  RH  046%=      5-min Rain = 0
KWE2 142323Z 20010KT 27/14 A2992 RMK A01 T02680144  RH  046%=      5-min Rain = 0
KWE2 142324Z 20014KT 27/14 A2992 RMK A01 T02680143  RH  046%=      5-min Rain = 0
KWE2 142325Z 21011KT 27/14 A2992 RMK A01 T02670143  RH  046%=      5-min Rain = 0
KWE2 142326Z 19013KT 27/14 A2992 RMK A01 T02670143  RH  047%=      5-min Rain = 0
KWE2 142327Z 20012KT 27/14 A2992 RMK A01 T02660143  RH  047%=      5-min Rain = 0
KWE2 142328Z 20013KT 27/14 A2992 RMK A01 T02650143  RH  047%=      5-min Rain = 0
KWE2 142329Z 19013KT 27/14 A2992 RMK A01 T02650143  RH  047%=      5-min Rain = 0
KWE2 142330Z 20013KT 26/14 A2992 RMK A01 T02640142  RH  047%=      5-min Rain = 0
KWE2 142331Z 20012KT 26/14 A2992 RMK A01 T02640142  RH  047%=      5-min Rain = 0
KWE2 142332Z 20013KT 26/14 A2992 RMK A01 T02640142  RH  047%=      5-min Rain = 0
KWE2 142333Z 20012KT 26/14 A2992 RMK A01 T02630141  RH  047%=      5-min Rain = 0
KWE2 142334Z 20012KT 26/14 A2992 RMK A01 T02640142  RH  047%=      5-min Rain = 0
KWE2 142335Z 21013KT 26/14 A2992 RMK A01 T02630142  RH  047%=      5-min Rain = 0
KWE2 142336Z 21011KT 26/14 A2992 RMK A01 T02630141  RH  047%=      5-min Rain = 0
KWE2 142337Z 20013KT 26/14 A2992 RMK A01 T02630141  RH  047%=      5-min Rain = 0
KWE2 142338Z 20011KT 26/14 A2992 RMK A01 T02630142  RH  047%=      5-min Rain = 0
KWE2 142339Z 20011KT 26/14 A2992 RMK A01 T02620141  RH  047%=      5-min Rain = 0
KWE2 142340Z 20010KT 26/14 A2992 RMK A01 T02620141  RH  047%=      5-min Rain = 0
KWE2 142341Z 20013KT 26/14 A2992 RMK A01 T02620141  RH  047%=      5-min Rain = 0
KWE2 142342Z 20012KT 26/14 A2992 RMK A01 T02610141  RH  047%=      5-min Rain = 0
KWE2 142343Z 20012KT 26/14 A2992 RMK A01 T02610141  RH  048%=      5-min Rain = 0
KWE2 142344Z 20013KT 26/14 A2992 RMK A01 T02600141  RH  048%=      5-min Rain = 0
KWE2 142345Z 20012KT 26/14 A2992 RMK A01 T02600140  RH  048%=      5-min Rain = 0
KWE2 142346Z 20012KT 26/14 A2992 RMK A01 T02600141  RH  048%=      5-min Rain = 0
KWE2 142347Z 20010KT 26/14 A2992 RMK A01 T02600141  RH  048%=      5-min Rain = 0
KWE2 142348Z 20009KT 26/14 A2992 RMK A01 T02590141  RH  048%=      5-min Rain = 0
KWE2 142349Z 20009KT 26/14 A2992 RMK A01 T02590141  RH  048%=      5-min Rain = 0
KWE2 142350Z 20008KT 26/14 A2992 RMK A01 T02590141  RH  048%=      5-min Rain = 0
KWE2 142351Z 21008KT 26/14 A2992 RMK A01 T02580141  RH  048%=      5-min Rain = 0
KWE2 142352Z 21011KT 26/14 A2992 RMK A01 T02580141  RH  048%=      5-min Rain = 0
KWE2 142353Z 21011KT 26/14 A2992 RMK A01 T02580141  RH  048%=      5-min Rain = 0
KWE2 142354Z 21011KT 26/14 A2992 RMK A01 T02570141  RH  048%=      5-min Rain = 0
KWE2 142355Z 22012KT 26/14 A2992 RMK A01 T02570141  RH  049%=      5-min Rain = 0
KWE2 142356Z 22009KT 26/14 A2992 RMK A01 T02570141  RH  049%=      5-min Rain = 0
KWE2 142357Z 22010KT 26/14 A2992 RMK A01 T02560141  RH  049%=      5-min Rain = 0
KWE2 142358Z 22010KT 26/14 A2992 RMK A01 T02550141  RH  049%=      5-min Rain = 0
KWE2 142359Z 22010KT 26/14 A2992 RMK A01 T02550141  RH  049%=      5-min Rain = 0
KWE2 150000Z 22008KT 26/14 A2992 RMK A01 T02550141  RH  049%=      5-min Rain = 0
KWE2 150001Z 22009KT 25/14 A2992 RMK A01 T02540141  RH  049%=      5-min Rain = 0
KWE2 150002Z 21010KT 25/14 A2992 RMK A01 T02540141  RH  050%=      5-min Rain = 0
KWE2 150003Z 22009KT 25/14 A2992 RMK A01 T02530141  RH  050%=      5-min Rain = 0
KWE2 150004Z 22008KT 25/14 A2992 RMK A01 T02530141  RH  050%=      5-min Rain = 0
KWE2 150005Z 22007KT 25/14 A2992 RMK A01 T02520141  RH  050%=      5-min Rain = 0
KWE2 150006Z 22008KT 25/14 A2992 RMK A01 T02510141  RH  050%=      5-min Rain = 0
KWE2 150007Z 22008KT 25/14 A2992 RMK A01 T02510141  RH  051%=      5-min Rain = 0
KWE2 150008Z 22009KT 25/14 A2992 RMK A01 T02500141  RH  051%=      5-min Rain = 0
KWE2 150009Z 21007KT 25/14 A2992 RMK A01 T02490141  RH  051%=      5-min Rain = 0
KWE2 150010Z 22007KT 25/14 A2992 RMK A01 T02480141  RH  051%=      5-min Rain = 0
KWE2 150011Z 22007KT 25/14 A2992 RMK A01 T02480141  RH  051%=      5-min Rain = 0
KWE2 150012Z 21008KT 25/14 A2992 RMK A01 T02470141  RH  052%=      5-min Rain = 0
KWE2 150013Z 21007KT 25/14 A2992 RMK A01 T02460141  RH  052%=      5-min Rain = 0
KWE2 150014Z 21007KT 25/14 A2992 RMK A01 T02460141  RH  052%=      5-min Rain = 0
KWE2 150015Z 21007KT 25/14 A2992 RMK A01 T02450141  RH  052%=      5-min Rain = 0
KWE2 150016Z 21007KT 25/14 A2992 RMK A01 T02450141  RH  052%=      5-min Rain = 0
KWE2 150017Z 21007KT 24/14 A2992 RMK A01 T02440141  RH  053%=      5-min Rain = 0
KWE2 150018Z 21007KT 24/14 A2992 RMK A01 T02440141  RH  053%=      5-min Rain = 0
KWE2 150019Z 22007KT 24/14 A2992 RMK A01 T02430141  RH  053%=      5-min Rain = 0
KWE2 150020Z 22006KT 24/14 A2993 RMK A01 T02430141  RH  053%=      5-min Rain = 0
KWE2 150021Z 21007KT 24/14 A2993 RMK A01 T02420141  RH  053%=      5-min Rain = 0
KWE2 150022Z 21006KT 24/14 A2992 RMK A01 T02410141  RH  053%=      5-min Rain = 0
KWE2 150023Z 21007KT 24/14 A2992 RMK A01 T02400140  RH  054%=      5-min Rain = 0
KWE2 150024Z 21007KT 24/14 A2992 RMK A01 T02400141  RH  054%=      5-min Rain = 0
KWE2 150025Z 21007KT 24/14 A2992 RMK A01 T02390140  RH  054%=      5-min Rain = 0
KWE2 150026Z 20007KT 24/14 A2992 RMK A01 T02390140  RH  054%=      5-min Rain = 0
KWE2 150027Z 21007KT 24/14 A2992 RMK A01 T02390141  RH  054%=      5-min Rain = 0
KWE2 150028Z 20007KT 24/14 A2992 RMK A01 T02380140  RH  054%=      5-min Rain = 0
KWE2 150029Z 20006KT 24/14 A2992 RMK A01 T02370140  RH  054%=      5-min Rain = 0
KWE2 150030Z 20007KT 24/14 A2993 RMK A01 T02370141  RH  055%=      5-min Rain = 0
KWE2 150031Z 20006KT 24/14 A2993 RMK A01 T02370140  RH  055%=      5-min Rain = 0
KWE2 150032Z 20006KT 24/14 A2993 RMK A01 T02360141  RH  055%=      5-min Rain = 0
KWE2 150033Z 20006KT 24/14 A2993 RMK A01 T02360140  RH  055%=      5-min Rain = 0
KWE2 150034Z 20006KT 24/14 A2993 RMK A01 T02350140  RH  055%=      5-min Rain = 0
KWE2 150035Z 20006KT 24/14 A2993 RMK A01 T02350140  RH  055%=      5-min Rain = 0
KWE2 150036Z 20006KT 23/14 A2993 RMK A01 T02340140  RH  056%=      5-min Rain = 0
KWE2 150037Z 20006KT 23/14 A2993 RMK A01 T02340140  RH  056%=      5-min Rain = 0
KWE2 150038Z 20007KT 23/14 A2993 RMK A01 T02330140  RH  056%=      5-min Rain = 0
KWE2 150039Z 20007KT 23/14 A2993 RMK A01 T02330140  RH  056%=      5-min Rain = 0
KWE2 150040Z 20007KT 23/14 A2993 RMK A01 T02330140  RH  056%=      5-min Rain = 0
KWE2 150041Z 20007KT 23/14 A2993 RMK A01 T02320140  RH  056%=      5-min Rain = 0
KWE2 150042Z 20006KT 23/14 A2993 RMK A01 T02320140  RH  056%=      5-min Rain = 0
KWE2 150043Z 20006KT 23/14 A2993 RMK A01 T02320141  RH  056%=      5-min Rain = 0
KWE2 150044Z 20007KT 23/14 A2993 RMK A01 T02310141  RH  057%=      5-min Rain = 0
KWE2 150045Z 20007KT 23/14 A2993 RMK A01 T02310141  RH  057%=      5-min Rain = 0
KWE2 150046Z 20006KT 23/14 A2993 RMK A01 T02300141  RH  057%=      5-min Rain = 0
KWE2 150047Z 20006KT 23/14 A2993 RMK A01 T02300141  RH  057%=      5-min Rain = 0
KWE2 150048Z 20006KT 23/14 A2993 RMK A01 T02300141  RH  057%=      5-min Rain = 0
KWE2 150049Z 20006KT 23/14 A2993 RMK A01 T02290141  RH  057%=      5-min Rain = 0
KWE2 150050Z 20006KT 23/14 A2993 RMK A01 T02290141  RH  058%=      5-min Rain = 0
KWE2 150051Z 20006KT 23/14 A2993 RMK A01 T02290141  RH  058%=      5-min Rain = 0
KWE2 150052Z 20006KT 23/14 A2993 RMK A01 T02280141  RH  058%=      5-min Rain = 0
KWE2 150053Z 20006KT 23/14 A2993 RMK A01 T02280141  RH  058%=      5-min Rain = 0
KWE2 150054Z 20006KT 23/14 A2993 RMK A01 T02280142  RH  058%=      5-min Rain = 0
KWE2 150055Z 20006KT 23/14 A2993 RMK A01 T02270141  RH  058%=      5-min Rain = 0
KWE2 150056Z 20006KT 23/14 A2993 RMK A01 T02270142  RH  059%=      5-min Rain = 0
KWE2 150057Z 20006KT 23/14 A2993 RMK A01 T02270142  RH  059%=      5-min Rain = 0
KWE2 150058Z 20006KT 23/14 A2993 RMK A01 T02260142  RH  059%=      5-min Rain = 0
KWE2 150059Z 20006KT 23/14 A2993 RMK A01 T02260142  RH  059%=      5-min Rain = 0
KWE2 150100Z 20006KT 23/14 A2993 RMK A01 T02260142  RH  059%=      5-min Rain = 0
KWE2 150101Z 20006KT 23/14 A2994 RMK A01 T02260143  RH  059%=      5-min Rain = 0
KWE2 150102Z 20006KT 23/14 A2994 RMK A01 T02250142  RH  059%=      5-min Rain = 0
KWE2 150103Z 20005KT 23/14 A2994 RMK A01 T02250142  RH  060%=      5-min Rain = 0
KWE2 150104Z 20005KT 22/14 A2994 RMK A01 T02240142  RH  060%=      5-min Rain = 0
KWE2 150105Z 20006KT 22/14 A2994 RMK A01 T02230142  RH  060%=      5-min Rain = 0
KWE2 150106Z 20006KT 22/14 A2994 RMK A01 T02230142  RH  060%=      5-min Rain = 0
KWE2 150107Z 20005KT 22/14 A2994 RMK A01 T02230142  RH  060%=      5-min Rain = 0
KWE2 150108Z 20006KT 22/14 A2994 RMK A01 T02220142  RH  060%=      5-min Rain = 0
KWE2 150109Z 20006KT 22/14 A2994 RMK A01 T02220143  RH  061%=      5-min Rain = 0
KWE2 150110Z 20005KT 22/14 A2994 RMK A01 T02220142  RH  061%=      5-min Rain = 0
KWE2 150111Z 20005KT 22/14 A2994 RMK A01 T02220142  RH  061%=      5-min Rain = 0
KWE2 150112Z 20005KT 22/14 A2994 RMK A01 T02210142  RH  061%=      5-min Rain = 0
KWE2 150113Z 20005KT 22/14 A2994 RMK A01 T02210142  RH  061%=      5-min Rain = 0
KWE2 150114Z 20005KT 22/14 A2994 RMK A01 T02200142  RH  061%=      5-min Rain = 0
KWE2 150115Z 20005KT 22/14 A2994 RMK A01 T02200142  RH  061%=      5-min Rain = 0
KWE2 150116Z 20005KT 22/14 A2994 RMK A01 T02190142  RH  061%=      5-min Rain = 0
KWE2 150117Z 20006KT 22/14 A2994 RMK A01 T02190142  RH  062%=      5-min Rain = 0
KWE2 150118Z 20005KT 22/14 A2994 RMK A01 T02180142  RH  062%=      5-min Rain = 0
KWE2 150119Z 20005KT 22/14 A2994 RMK A01 T02180142  RH  062%=      5-min Rain = 0
KWE2 150120Z 20006KT 22/14 A2994 RMK A01 T02170142  RH  062%=      5-min Rain = 0
KWE2 150121Z 20007KT 22/14 A2995 RMK A01 T02170142  RH  062%=      5-min Rain = 0
KWE2 150122Z 20007KT 22/14 A2995 RMK A01 T02160142  RH  063%=      5-min Rain = 0
KWE2 150123Z 20006KT 22/14 A2995 RMK A01 T02160142  RH  063%=      5-min Rain = 0
KWE2 150124Z 20007KT 22/14 A2995 RMK A01 T02160142  RH  063%=      5-min Rain = 0
KWE2 150125Z 20007KT 22/14 A2995 RMK A01 T02160142  RH  063%=      5-min Rain = 0
KWE2 150126Z 20007KT 22/14 A2995 RMK A01 T02160142  RH  063%=      5-min Rain = 0
KWE2 150127Z 20007KT 22/14 A2995 RMK A01 T02160142  RH  063%=      5-min Rain = 0
KWE2 150128Z 20006KT 22/14 A2995 RMK A01 T02160142  RH  063%=      5-min Rain = 0
KWE2 150129Z 20006KT 22/14 A2995 RMK A01 T02160142  RH  063%=      5-min Rain = 0
KWE2 150130Z 20006KT 22/14 A2995 RMK A01 T02150142  RH  063%=      5-min Rain = 0
KWE2 150131Z 20006KT 22/14 A2995 RMK A01 T02150142  RH  063%=      5-min Rain = 0
KWE2 150132Z 20006KT 22/14 A2995 RMK A01 T02150142  RH  063%=      5-min Rain = 0
KWE2 150133Z 19006KT 21/14 A2995 RMK A01 T02140142  RH  063%=      5-min Rain = 0
KWE2 150134Z 19006KT 21/14 A2995 RMK A01 T02140142  RH  063%=      5-min Rain = 0
KWE2 150135Z 19006KT 21/14 A2995 RMK A01 T02130142  RH  064%=      5-min Rain = 0
KWE2 150136Z 19007KT 21/14 A2995 RMK A01 T02130142  RH  064%=      5-min Rain = 0
KWE2 150137Z 19007KT 21/14 A2995 RMK A01 T02130142  RH  064%=      5-min Rain = 0
KWE2 150138Z 18006KT 21/14 A2995 RMK A01 T02120141  RH  064%=      5-min Rain = 0
KWE2 150139Z 18006KT 21/14 A2995 RMK A01 T02120141  RH  064%=      5-min Rain = 0
KWE2 150140Z 19007KT 21/14 A2995 RMK A01 T02110141  RH  064%=      5-min Rain = 0
KWE2 150141Z 19007KT 21/14 A2995 RMK A01 T02110141  RH  064%=      5-min Rain = 0
KWE2 150142Z 19007KT 21/14 A2995 RMK A01 T02110141  RH  064%=      5-min Rain = 0
KWE2 150143Z 19007KT 21/14 A2995 RMK A01 T02110141  RH  064%=      5-min Rain = 0
KWE2 150144Z 18007KT 21/14 A2995 RMK A01 T02110141  RH  064%=      5-min Rain = 0
KWE2 150145Z 19008KT 21/14 A2995 RMK A01 T02110141  RH  064%=      5-min Rain = 0
KWE2 150146Z 19008KT 21/14 A2995 RMK A01 T02110141  RH  064%=      5-min Rain = 0
KWE2 150147Z 19008KT 21/14 A2995 RMK A01 T02120142  RH  064%=      5-min Rain = 0
KWE2 150148Z 19008KT 21/14 A2995 RMK A01 T02130142  RH  064%=      5-min Rain = 0
KWE2 150149Z 19007KT 21/14 A2995 RMK A01 T02140142  RH  064%=      5-min Rain = 0
KWE2 150150Z 19007KT 21/14 A2995 RMK A01 T02140142  RH  064%=      5-min Rain = 0
KWE2 150151Z 19007KT 21/14 A2995 RMK A01 T02140142  RH  064%=      5-min Rain = 0
KWE2 150152Z 19007KT 21/14 A2995 RMK A01 T02130142  RH  064%=      5-min Rain = 0
KWE2 150153Z 19007KT 21/14 A2995 RMK A01 T02130142  RH  064%=      5-min Rain = 0
KWE2 150154Z 19007KT 21/14 A2995 RMK A01 T02120142  RH  064%=      5-min Rain = 0
KWE2 150155Z 19007KT 21/14 A2995 RMK A01 T02120142  RH  064%=      5-min Rain = 0
KWE2 150156Z 19007KT 21/14 A2995 RMK A01 T02110142  RH  065%=      5-min Rain = 0
KWE2 150157Z 20007KT 21/14 A2995 RMK A01 T02110142  RH  065%=      5-min Rain = 0
KWE2 150158Z 20006KT 21/14 A2995 RMK A01 T02100142  RH  065%=      5-min Rain = 0
KWE2 150159Z 20006KT 21/14 A2995 RMK A01 T02100142  RH  065%=      5-min Rain = 0
KWE2 150200Z 20007KT 21/14 A2995 RMK A01 T02090142  RH  065%=      5-min Rain = 0
KWE2 150201Z 20006KT 21/14 A2995 RMK A01 T02090142  RH  065%=      5-min Rain = 0
KWE2 150202Z 20006KT 21/14 A2995 RMK A01 T02090142  RH  066%=      5-min Rain = 0
KWE2 150203Z 19006KT 21/14 A2995 RMK A01 T02080142  RH  066%=      5-min Rain = 0
KWE2 150204Z 20005KT 21/14 A2995 RMK A01 T02070142  RH  066%=      5-min Rain = 0
KWE2 150205Z 20006KT 21/14 A2995 RMK A01 T02070142  RH  066%=      5-min Rain = 0
KWE2 150206Z 20006KT 21/14 A2996 RMK A01 T02060142  RH  067%=      5-min Rain = 0
KWE2 150207Z 20006KT 21/14 A2996 RMK A01 T02050142  RH  067%=      5-min Rain = 0
KWE2 150208Z 20007KT 21/14 A2995 RMK A01 T02050142  RH  067%=      5-min Rain = 0
KWE2 150209Z 20006KT 21/14 A2995 RMK A01 T02050143  RH  067%=      5-min Rain = 0
KWE2 150210Z 20007KT 20/14 A2995 RMK A01 T02040143  RH  068%=      5-min Rain = 0
KWE2 150211Z 20007KT 20/14 A2995 RMK A01 T02040143  RH  068%=      5-min Rain = 0
KWE2 150212Z 20007KT 20/14 A2995 RMK A01 T02040143  RH  068%=      5-min Rain = 0
KWE2 150213Z 20006KT 20/14 A2996 RMK A01 T02040143  RH  068%=      5-min Rain = 0
KWE2 150214Z 20007KT 20/14 A2996 RMK A01 T02040144  RH  068%=      5-min Rain = 0
KWE2 150215Z 20006KT 20/14 A2996 RMK A01 T02030143  RH  068%=      5-min Rain = 0
KWE2 150216Z 20007KT 20/14 A2996 RMK A01 T02030144  RH  069%=      5-min Rain = 0
KWE2 150217Z 20007KT 20/14 A2996 RMK A01 T02030144  RH  069%=      5-min Rain = 0
KWE2 150218Z 20006KT 20/15 A2996 RMK A01 T02030145  RH  069%=      5-min Rain = 0
KWE2 150219Z 20006KT 20/15 A2996 RMK A01 T02030145  RH  069%=      5-min Rain = 0
KWE2 150220Z 20007KT 20/15 A2996 RMK A01 T02020145  RH  070%=      5-min Rain = 0
KWE2 150221Z 21006KT 20/15 A2996 RMK A01 T02020145  RH  070%=      5-min Rain = 0
KWE2 150222Z 20007KT 20/15 A2996 RMK A01 T02020145  RH  070%=      5-min Rain = 0
KWE2 150223Z 20007KT 20/15 A2996 RMK A01 T02010145  RH  070%=      5-min Rain = 0
KWE2 150224Z 20007KT 20/15 A2996 RMK A01 T02010145  RH  070%=      5-min Rain = 0
KWE2 150225Z 21007KT 20/15 A2996 RMK A01 T02010146  RH  070%=      5-min Rain = 0
KWE2 150226Z 20007KT 20/15 A2996 RMK A01 T02010146  RH  071%=      5-min Rain = 0
KWE2 150227Z 20007KT 20/15 A2996 RMK A01 T02010146  RH  071%=      5-min Rain = 0
KWE2 150228Z 20007KT 20/15 A2996 RMK A01 T02010147  RH  071%=      5-min Rain = 0
KWE2 150229Z 20007KT 20/15 A2996 RMK A01 T02000147  RH  071%=      5-min Rain = 0
KWE2 150230Z 20007KT 20/15 A2996 RMK A01 T02010147  RH  071%=      5-min Rain = 0
KWE2 150231Z 20007KT 20/15 A2996 RMK A01 T02000147  RH  071%=      5-min Rain = 0
KWE2 150232Z 20007KT 20/15 A2996 RMK A01 T02000147  RH  071%=      5-min Rain = 0
KWE2 150233Z 20007KT 20/15 A2996 RMK A01 T02000147  RH  072%=      5-min Rain = 0
KWE2 150234Z 20007KT 20/15 A2996 RMK A01 T01990147  RH  072%=      5-min Rain = 0
KWE2 150235Z 20007KT 20/15 A2996 RMK A01 T02000148  RH  072%=      5-min Rain = 0
KWE2 150236Z 20007KT 20/15 A2996 RMK A01 T02000148  RH  072%=      5-min Rain = 0
KWE2 150237Z 20006KT 20/15 A2996 RMK A01 T02000148  RH  072%=      5-min Rain = 0
KWE2 150238Z 20007KT 20/15 A2996 RMK A01 T02010148  RH  072%=      5-min Rain = 0
KWE2 150239Z 20007KT 20/15 A2996 RMK A01 T02010149  RH  072%=      5-min Rain = 0
KWE2 150240Z 20007KT 20/15 A2996 RMK A01 T02000149  RH  072%=      5-min Rain = 0
KWE2 150241Z 20006KT 20/15 A2996 RMK A01 T02010149  RH  072%=      5-min Rain = 0
KWE2 150242Z 20006KT 20/15 A2996 RMK A01 T02000148  RH  072%=      5-min Rain = 0
KWE2 150243Z 20006KT 20/15 A2996 RMK A01 T01990148  RH  072%=      5-min Rain = 0
KWE2 150244Z 20006KT 20/15 A2996 RMK A01 T01990149  RH  073%=      5-min Rain = 0
KWE2 150245Z 20006KT 20/15 A2996 RMK A01 T01990149  RH  073%=      5-min Rain = 0
KWE2 150246Z 20006KT 20/15 A2996 RMK A01 T01990149  RH  073%=      5-min Rain = 0
KWE2 150247Z 20006KT 20/15 A2996 RMK A01 T01990149  RH  073%=      5-min Rain = 0
KWE2 150248Z 20006KT 20/15 A2996 RMK A01 T01980149  RH  073%=      5-min Rain = 0
KWE2 150249Z 20006KT 20/15 A2996 RMK A01 T01980149  RH  073%=      5-min Rain = 0
KWE2 150250Z 20006KT 20/15 A2996 RMK A01 T01980149  RH  073%=      5-min Rain = 0
KWE2 150251Z 20006KT 20/15 A2996 RMK A01 T01970148  RH  073%=      5-min Rain = 0
KWE2 150252Z 20006KT 20/15 A2997 RMK A01 T01970149  RH  074%=      5-min Rain = 0
KWE2 150253Z 20006KT 20/15 A2997 RMK A01 T01970149  RH  074%=      5-min Rain = 0
KWE2 150254Z 20006KT 20/15 A2997 RMK A01 T01960149  RH  074%=      5-min Rain = 0
KWE2 150255Z 20006KT 20/15 A2997 RMK A01 T01960149  RH  074%=      5-min Rain = 0
KWE2 150256Z 20007KT 20/15 A2997 RMK A01 T01960149  RH  074%=      5-min Rain = 0
KWE2 150257Z 20006KT 20/15 A2997 RMK A01 T01950149  RH  074%=      5-min Rain = 0
KWE2 150258Z 20007KT 20/15 A2997 RMK A01 T01950148  RH  075%=      5-min Rain = 0
KWE2 150259Z 20007KT 19/15 A2997 RMK A01 T01940148  RH  075%=      5-min Rain = 0
KWE2 150300Z 20007KT 19/15 A2997 RMK A01 T01940149  RH  075%=      5-min Rain = 0
KWE2 150301Z 19007KT 19/15 A2997 RMK A01 T01940148  RH  075%=      5-min Rain = 0
KWE2 150302Z 19007KT 19/15 A2997 RMK A01 T01930148  RH  075%=      5-min Rain = 0
KWE2 150303Z 19007KT 19/15 A2997 RMK A01 T01930149  RH  075%=      5-min Rain = 0
KWE2 150304Z 19007KT 19/15 A2997 RMK A01 T01930149  RH  075%=      5-min Rain = 0
KWE2 150305Z 19007KT 19/15 A2997 RMK A01 T01930149  RH  076%=      5-min Rain = 0
KWE2 150306Z 19006KT 19/15 A2997 RMK A01 T01930149  RH  076%=      5-min Rain = 0
KWE2 150307Z 19007KT 19/15 A2997 RMK A01 T01930149  RH  076%=      5-min Rain = 0
KWE2 150308Z 19007KT 19/15 A2997 RMK A01 T01930149  RH  076%=      5-min Rain = 0
KWE2 150309Z 19006KT 19/15 A2997 RMK A01 T01930149  RH  076%=      5-min Rain = 0
KWE2 150310Z 19006KT 19/15 A2997 RMK A01 T01930149  RH  076%=      5-min Rain = 0
KWE2 150311Z 19007KT 19/15 A2997 RMK A01 T01930149  RH  076%=      5-min Rain = 0
KWE2 150312Z 19006KT 19/15 A2997 RMK A01 T01920149  RH  076%=      5-min Rain = 0
KWE2 150313Z 19006KT 19/15 A2997 RMK A01 T01920149  RH  076%=      5-min Rain = 0
KWE2 150314Z 19007KT 19/15 A2997 RMK A01 T01920149  RH  076%=      5-min Rain = 0
KWE2 150315Z 19006KT 19/15 A2997 RMK A01 T01910149  RH  076%=      5-min Rain = 0
KWE2 150316Z 19006KT 19/15 A2997 RMK A01 T01910149  RH  076%=      5-min Rain = 0
KWE2 150317Z 19006KT 19/15 A2997 RMK A01 T01910149  RH  077%=      5-min Rain = 0
KWE2 150318Z 20006KT 19/15 A2997 RMK A01 T01910149  RH  077%=      5-min Rain = 0
KWE2 150319Z 19006KT 19/15 A2997 RMK A01 T01900149  RH  077%=      5-min Rain = 0
KWE2 150320Z 20007KT 19/15 A2997 RMK A01 T01900149  RH  077%=      5-min Rain = 0
KWE2 150321Z 20006KT 19/15 A2997 RMK A01 T01900149  RH  077%=      5-min Rain = 0
KWE2 150322Z 20006KT 19/15 A2997 RMK A01 T01900149  RH  077%=      5-min Rain = 0
KWE2 150323Z 20006KT 19/15 A2997 RMK A01 T01900149  RH  077%=      5-min Rain = 0
KWE2 150324Z 20006KT 19/15 A2997 RMK A01 T01900149  RH  077%=      5-min Rain = 0
KWE2 150325Z 19006KT 19/15 A2997 RMK A01 T01890149  RH  077%=      5-min Rain = 0
KWE2 150326Z 19006KT 19/15 A2997 RMK A01 T01890149  RH  077%=      5-min Rain = 0
KWE2 150327Z 20006KT 19/15 A2997 RMK A01 T01890149  RH  078%=      5-min Rain = 0
KWE2 150328Z 20006KT 19/15 A2997 RMK A01 T01890149  RH  078%=      5-min Rain = 0
KWE2 150329Z 20006KT 19/15 A2997 RMK A01 T01890149  RH  078%=      5-min Rain = 0
KWE2 150330Z 20006KT 19/15 A2997 RMK A01 T01890149  RH  078%=      5-min Rain = 0
KWE2 150331Z 20006KT 19/15 A2997 RMK A01 T01890149  RH  078%=      5-min Rain = 0
KWE2 150332Z 21006KT 19/15 A2997 RMK A01 T01880149  RH  078%=      5-min Rain = 0
KWE2 150333Z 21006KT 19/15 A2997 RMK A01 T01880149  RH  078%=      5-min Rain = 0
KWE2 150334Z 20006KT 19/15 A2997 RMK A01 T01880149  RH  078%=      5-min Rain = 0
KWE2 150335Z 20006KT 19/15 A2997 RMK A01 T01880149  RH  078%=      5-min Rain = 0
KWE2 150336Z 20006KT 19/15 A2997 RMK A01 T01880149  RH  078%=      5-min Rain = 0
KWE2 150337Z 20006KT 19/15 A2997 RMK A01 T01880149  RH  078%=      5-min Rain = 0
KWE2 150338Z 19006KT 19/15 A2997 RMK A01 T01880149  RH  078%=      5-min Rain = 0
KWE2 150339Z 19006KT 19/15 A2997 RMK A01 T01880149  RH  078%=      5-min Rain = 0
KWE2 150340Z 19006KT 19/15 A2997 RMK A01 T01870149  RH  078%=      5-min Rain = 0
KWE2 150341Z 19006KT 19/15 A2997 RMK A01 T01870149  RH  078%=      5-min Rain = 0
KWE2 150342Z 19006KT 19/15 A2997 RMK A01 T01870149  RH  078%=      5-min Rain = 0
KWE2 150343Z 18006KT 19/15 A2997 RMK A01 T01860148  RH  079%=      5-min Rain = 0
KWE2 150344Z 18006KT 19/15 A2997 RMK A01 T01860148  RH  079%=      5-min Rain = 0
KWE2 150345Z 19006KT 19/15 A2997 RMK A01 T01850148  RH  079%=      5-min Rain = 0
KWE2 150346Z 19006KT 19/15 A2997 RMK A01 T01850149  RH  079%=      5-min Rain = 0
KWE2 150347Z 19006KT 19/15 A2997 RMK A01 T01850148  RH  079%=      5-min Rain = 0
KWE2 150348Z 19006KT 19/15 A2997 RMK A01 T01850149  RH  079%=      5-min Rain = 0
KWE2 150349Z 19007KT 19/15 A2997 RMK A01 T01850149  RH  079%=      5-min Rain = 0
KWE2 150350Z 19007KT 19/15 A2997 RMK A01 T01850149  RH  079%=      5-min Rain = 0
KWE2 150351Z 19007KT 19/15 A2998 RMK A01 T01850149  RH  079%=      5-min Rain = 0
KWE2 150352Z 19007KT 19/15 A2998 RMK A01 T01850149  RH  080%=      5-min Rain = 0
KWE2 150353Z 19007KT 18/15 A2998 RMK A01 T01840149  RH  080%=      5-min Rain = 0
KWE2 150354Z 19007KT 19/15 A2998 RMK A01 T01850149  RH  080%=      5-min Rain = 0
KWE2 150355Z 19008KT 19/15 A2998 RMK A01 T01850149  RH  080%=      5-min Rain = 0
KWE2 150356Z 20007KT 19/15 A2998 RMK A01 T01850149  RH  080%=      5-min Rain = 0
KWE2 150357Z 19008KT 19/15 A2998 RMK A01 T01850149  RH  080%=      5-min Rain = 0
KWE2 150358Z 19008KT 19/15 A2998 RMK A01 T01850150  RH  080%=      5-min Rain = 0
KWE2 150359Z 20007KT 19/15 A2998 RMK A01 T01860150  RH  080%=      5-min Rain = 0
KWE2 150400Z 20007KT 19/15 A2998 RMK A01 T01860150  RH  079%=      5-min Rain = 0
KWE2 150401Z 20008KT 19/15 A2998 RMK A01 T01860150  RH  079%=      5-min Rain = 0
KWE2 150402Z 20008KT 19/15 A2998 RMK A01 T01870151  RH  079%=      5-min Rain = 0
KWE2 150403Z 20007KT 19/15 A2998 RMK A01 T01880151  RH  079%=      5-min Rain = 0
KWE2 150404Z 20007KT 19/15 A2998 RMK A01 T01880151  RH  079%=      5-min Rain = 0
KWE2 150405Z 20008KT 19/15 A2998 RMK A01 T01890151  RH  079%=      5-min Rain = 0
KWE2 150406Z 20007KT 19/15 A2998 RMK A01 T01890151  RH  079%=      5-min Rain = 0
KWE2 150407Z 20006KT 19/15 A2998 RMK A01 T01900152  RH  078%=      5-min Rain = 0
KWE2 150408Z 19007KT 19/15 A2998 RMK A01 T01900152  RH  078%=      5-min Rain = 0
KWE2 150409Z 19007KT 19/15 A2998 RMK A01 T01890151  RH  078%=      5-min Rain = 0
KWE2 150410Z 19006KT 19/15 A2998 RMK A01 T01900152  RH  078%=      5-min Rain = 0
KWE2 150411Z 19007KT 19/15 A2998 RMK A01 T01900152  RH  078%=      5-min Rain = 0
KWE2 150412Z 19007KT 19/15 A2998 RMK A01 T01900152  RH  078%=      5-min Rain = 0
KWE2 150413Z 19007KT 19/15 A2998 RMK A01 T01900152  RH  079%=      5-min Rain = 0
KWE2 150414Z 19007KT 19/15 A2998 RMK A01 T01900152  RH  079%=      5-min Rain = 0
KWE2 150415Z 19007KT 19/15 A2998 RMK A01 T01900153  RH  079%=      5-min Rain = 0
KWE2 150416Z 19007KT 19/15 A2998 RMK A01 T01900152  RH  079%=      5-min Rain = 0
KWE2 150417Z 19007KT 19/15 A2998 RMK A01 T01900152  RH  079%=      5-min Rain = 0
KWE2 150418Z 19006KT 19/15 A2998 RMK A01 T01900152  RH  079%=      5-min Rain = 0
KWE2 150419Z 19006KT 19/15 A2998 RMK A01 T01900152  RH  079%=      5-min Rain = 0
KWE2 150420Z 19006KT 19/15 A2998 RMK A01 T01900152  RH  079%=      5-min Rain = 0
KWE2 150421Z 19006KT 19/15 A2998 RMK A01 T01900152  RH  079%=      5-min Rain = 0
KWE2 150422Z 20007KT 19/15 A2998 RMK A01 T01910153  RH  079%=      5-min Rain = 0
KWE2 150423Z 20006KT 19/15 A2998 RMK A01 T01910153  RH  079%=      5-min Rain = 0
KWE2 150424Z 20007KT 19/15 A2998 RMK A01 T01910153  RH  079%=      5-min Rain = 0
KWE2 150425Z 20007KT 19/15 A2998 RMK A01 T01910154  RH  079%=      5-min Rain = 0
KWE2 150426Z 20007KT 19/15 A2998 RMK A01 T01920154  RH  079%=      5-min Rain = 0
KWE2 150427Z 20007KT 19/15 A2998 RMK A01 T01930154  RH  078%=      5-min Rain = 0
KWE2 150428Z 20006KT 19/16 A2998 RMK A01 T01930155  RH  078%=      5-min Rain = 0
KWE2 150429Z 20007KT 19/16 A2998 RMK A01 T01940155  RH  078%=      5-min Rain = 0
KWE2 150430Z 21008KT 19/16 A2998 RMK A01 T01940155  RH  078%=      5-min Rain = 0
KWE2 150431Z 20007KT 20/16 A2998 RMK A01 T01960156  RH  078%=      5-min Rain = 0
KWE2 150432Z 20008KT 20/16 A2998 RMK A01 T01960156  RH  077%=      5-min Rain = 0
KWE2 150433Z 20007KT 20/16 A2998 RMK A01 T01970156  RH  077%=      5-min Rain = 0
KWE2 150434Z 20007KT 20/16 A2998 RMK A01 T01980156  RH  077%=      5-min Rain = 0
KWE2 150435Z 20007KT 20/16 A2998 RMK A01 T01980155  RH  077%=      5-min Rain = 0
KWE2 150436Z 20007KT 20/16 A2998 RMK A01 T01980156  RH  077%=      5-min Rain = 0
KWE2 150437Z 20007KT 20/16 A2998 RMK A01 T01980156  RH  077%=      5-min Rain = 0
KWE2 150438Z 20007KT 20/16 A2998 RMK A01 T01980156  RH  077%=      5-min Rain = 0
KWE2 150439Z 20007KT 20/16 A2998 RMK A01 T01980156  RH  077%=      5-min Rain = 0
KWE2 150440Z 21006KT 20/16 A2998 RMK A01 T01980156  RH  077%=      5-min Rain = 0
KWE2 150441Z 20006KT 20/16 A2998 RMK A01 T01980156  RH  077%=      5-min Rain = 0
KWE2 150442Z 21007KT 20/16 A2998 RMK A01 T01980157  RH  077%=      5-min Rain = 0
KWE2 150443Z 21006KT 20/16 A2998 RMK A01 T01980156  RH  077%=      5-min Rain = 0
KWE2 150444Z 21006KT 20/16 A2998 RMK A01 T01980157  RH  077%=      5-min Rain = 0
KWE2 150445Z 21007KT 20/16 A2998 RMK A01 T01980157  RH  077%=      5-min Rain = 0
KWE2 150446Z 21009KT 20/16 A2998 RMK A01 T01980157  RH  077%=      5-min Rain = 0
KWE2 150447Z 21009KT 20/16 A2998 RMK A01 T01990158  RH  077%=      5-min Rain = 0
KWE2 150448Z 21008KT 20/16 A2998 RMK A01 T01990157  RH  077%=      5-min Rain = 0
KWE2 150449Z 21010KT 20/16 A2998 RMK A01 T02000157  RH  076%=      5-min Rain = 0
KWE2 150450Z 21008KT 20/16 A2998 RMK A01 T02000158  RH  076%=      5-min Rain = 0
KWE2 150451Z 21009KT 20/16 A2998 RMK A01 T02010158  RH  076%=      5-min Rain = 0
KWE2 150452Z 21008KT 20/16 A2998 RMK A01 T02000158  RH  076%=      5-min Rain = 0
KWE2 150453Z 21008KT 20/16 A2998 RMK A01 T02000157  RH  076%=      5-min Rain = 0
KWE2 150454Z 21008KT 20/16 A2998 RMK A01 T02000157  RH  077%=      5-min Rain = 0
KWE2 150455Z 21008KT 20/16 A2998 RMK A01 T01990157  RH  077%=      5-min Rain = 0
KWE2 150456Z 21008KT 20/16 A2998 RMK A01 T01990157  RH  077%=      5-min Rain = 0
KWE2 150457Z 21008KT 20/16 A2998 RMK A01 T01990157  RH  077%=      5-min Rain = 0
KWE2 150458Z 21007KT 20/16 A2998 RMK A01 T01990157  RH  077%=      5-min Rain = 0
KWE2 150459Z 21007KT 20/16 A2998 RMK A01 T01980157  RH  077%=      5-min Rain = 0

Page generated in 0.1211 seconds.